Wetterdaten: Sonntag, 18.07.2021
Datum Zeit Temp. Aussen Temp. o. S. Temp +5cm Feuchte Auss Luftdruck Regen Sonnenschein Regendauer Solar Windben Empfang
18.07.2021 00:00 19,4 C 18,3 C 16,7 C 84 % 1024,6 hPa 0,0 l/m 0 min 0 min 0 W/m 9,7 km/h (2 Bft) 97,87 %
18.07.2021 00:02 19,4 C 18,3 C 16,7 C 84 % 1024,6 hPa 0,0 l/m 0 min 0 min 0 W/m 9,7 km/h (2 Bft) 97,67 %
18.07.2021 00:04 19,4 C 18,3 C 16,7 C 84 % 1024,6 hPa 0,0 l/m 0 min 0 min 0 W/m 16,1 km/h (3 Bft) 100,00 %
18.07.2021 00:07 19,4 C 18,3 C 16,7 C 84 % 1024,6 hPa 0,0 l/m 0 min 0 min 0 W/m 6,4 km/h (2 Bft) 100,00 %
18.07.2021 00:08 19,4 C 18,3 C 16,7 C 84 % 1024,6 hPa 0,0 l/m 0 min 0 min 0 W/m 6,4 km/h (2 Bft) 100,00 %
18.07.2021 00:10 19,4 C 18,3 C 16,7 C 84 % 1024,6 hPa 0,0 l/m 0 min 0 min 0 W/m 3,2 km/h (1 Bft) 100,00 %
18.07.2021 00:12 19,3 C 18,3 C 16,7 C 84 % 1024,6 hPa 0,0 l/m 0 min 0 min 0 W/m 6,4 km/h (2 Bft) 97,87 %
18.07.2021 00:14 19,3 C 18,3 C 16,1 C 84 % 1024,6 hPa 0,0 l/m 0 min 0 min 0 W/m 6,4 km/h (2 Bft) 100,00 %
18.07.2021 00:16 19,3 C 18,3 C 16,1 C 84 % 1024,6 hPa 0,0 l/m 0 min 0 min 0 W/m 16,1 km/h (3 Bft) 100,00 %
18.07.2021 00:18 19,2 C 18,3 C 16,7 C 84 % 1024,6 hPa 0,0 l/m 0 min 0 min 0 W/m 16,1 km/h (3 Bft) 100,00 %
18.07.2021 00:20 19,2 C 18,3 C 16,1 C 84 % 1024,6 hPa 0,0 l/m 0 min 0 min 0 W/m 6,4 km/h (2 Bft) 100,00 %
18.07.2021 00:22 19,2 C 18,3 C 16,1 C 84 % 1024,5 hPa 0,0 l/m 0 min 0 min 0 W/m 6,4 km/h (2 Bft) 100,00 %
18.07.2021 00:24 19,1 C 18,3 C 16,1 C 84 % 1024,5 hPa 0,0 l/m 0 min 0 min 0 W/m 3,2 km/h (1 Bft) 100,00 %
18.07.2021 00:26 19,1 C 17,8 C 16,1 C 84 % 1024,5 hPa 0,0 l/m 0 min 0 min 0 W/m 6,4 km/h (2 Bft) 97,87 %
18.07.2021 00:28 19,1 C 17,8 C 16,1 C 84 % 1024,6 hPa 0,0 l/m 0 min 0 min 0 W/m 9,7 km/h (2 Bft) 100,00 %
18.07.2021 00:30 19,1 C 17,8 C 16,1 C 85 % 1024,6 hPa 0,0 l/m 0 min 0 min 0 W/m 6,4 km/h (2 Bft) 100,00 %
18.07.2021 00:32 19,0 C 17,8 C 16,1 C 85 % 1024,5 hPa 0,0 l/m 0 min 0 min 0 W/m 6,4 km/h (2 Bft) 97,87 %
18.07.2021 00:34 19,0 C 17,8 C 16,1 C 85 % 1024,5 hPa 0,0 l/m 0 min 0 min 0 W/m 9,7 km/h (2 Bft) 100,00 %
18.07.2021 00:36 19,0 C 17,8 C 16,1 C 85 % 1024,4 hPa 0,0 l/m 0 min 0 min 0 W/m 9,7 km/h (2 Bft) 97,87 %
18.07.2021 00:38 18,9 C 17,8 C 16,1 C 85 % 1024,5 hPa 0,0 l/m 0 min 0 min 0 W/m 6,4 km/h (2 Bft) 100,00 %
18.07.2021 00:40 18,9 C 17,8 C 16,1 C 85 % 1024,5 hPa 0,0 l/m 0 min 0 min 0 W/m 6,4 km/h (2 Bft) 100,00 %
18.07.2021 00:42 18,9 C 17,8 C 16,1 C 85 % 1024,5 hPa 0,0 l/m 0 min 0 min 0 W/m 6,4 km/h (2 Bft) 95,74 %
18.07.2021 00:44 18,8 C 17,8 C 16,1 C 85 % 1024,4 hPa 0,0 l/m 0 min 0 min 0 W/m 6,4 km/h (2 Bft) 100,00 %
18.07.2021 00:46 18,8 C 17,8 C 16,1 C 85 % 1024,4 hPa 0,0 l/m 0 min 0 min 0 W/m 16,1 km/h (3 Bft) 97,87 %
18.07.2021 00:48 18,8 C 17,8 C 16,1 C 86 % 1024,4 hPa 0,0 l/m 0 min 0 min 0 W/m 9,7 km/h (2 Bft) 95,74 %
18.07.2021 00:50 18,8 C 17,8 C 16,1 C 86 % 1024,4 hPa 0,0 l/m 0 min 0 min 0 W/m 6,4 km/h (2 Bft) 97,87 %
18.07.2021 00:52 18,7 C 17,8 C 16,1 C 86 % 1024,4 hPa 0,0 l/m 0 min 0 min 0 W/m 9,7 km/h (2 Bft) 97,87 %
18.07.2021 00:54 18,6 C 17,8 C 16,1 C 86 % 1024,4 hPa 0,0 l/m 0 min 0 min 0 W/m 12,9 km/h (3 Bft) 97,87 %
18.07.2021 00:56 18,6 C 17,8 C 16,1 C 86 % 1024,5 hPa 0,0 l/m 0 min 0 min 0 W/m 12,9 km/h (3 Bft) 97,83 %
18.07.2021 00:58 18,6 C 17,2 C 16,1 C 86 % 1024,5 hPa 0,0 l/m 0 min 0 min 0 W/m 6,4 km/h (2 Bft) 95,74 %
18.07.2021 01:00 18,6 C 17,2 C 16,1 C 86 % 1024,4 hPa 0,0 l/m 0 min 0 min 0 W/m 6,4 km/h (2 Bft) 97,87 %
18.07.2021 01:02 18,5 C 17,2 C 15,6 C 86 % 1024,5 hPa 0,0 l/m 0 min 0 min 0 W/m 9,7 km/h (2 Bft) 95,74 %
18.07.2021 01:04 18,5 C 17,2 C 16,1 C 86 % 1024,4 hPa 0,0 l/m 0 min 0 min 0 W/m 9,7 km/h (2 Bft) 93,75 %
18.07.2021 01:06 18,5 C 17,2 C 16,1 C 86 % 1024,4 hPa 0,0 l/m 0 min 0 min 0 W/m 9,7 km/h (2 Bft) 95,74 %
18.07.2021 01:08 18,5 C 17,2 C 15,6 C 86 % 1024,4 hPa 0,0 l/m 0 min 0 min 0 W/m 12,9 km/h (3 Bft) 95,65 %
18.07.2021 01:10 18,4 C 17,2 C 15,6 C 86 % 1024,4 hPa 0,0 l/m 0 min 0 min 0 W/m 6,4 km/h (2 Bft) 93,62 %
18.07.2021 01:12 18,4 C 17,2 C 15,6 C 86 % 1024,4 hPa 0,0 l/m 0 min 0 min 0 W/m 6,4 km/h (2 Bft) 95,74 %
18.07.2021 01:14 18,4 C 17,2 C 15,6 C 87 % 1024,4 hPa 0,0 l/m 0 min 0 min 0 W/m 9,7 km/h (2 Bft) 93,62 %
18.07.2021 01:16 18,3 C 17,2 C 15,6 C 87 % 1024,4 hPa 0,0 l/m 0 min 0 min 0 W/m 3,2 km/h (1 Bft) 95,74 %
18.07.2021 01:18 18,3 C 17,2 C 15,6 C 87 % 1024,4 hPa 0,0 l/m 0 min 0 min 0 W/m 6,4 km/h (2 Bft) 93,62 %
18.07.2021 01:20 18,3 C 17,2 C 15,6 C 87 % 1024,4 hPa 0,0 l/m 0 min 0 min 0 W/m 6,4 km/h (2 Bft) 95,65 %
18.07.2021 01:22 18,3 C 17,2 C 15,6 C 87 % 1024,4 hPa 0,0 l/m 0 min 0 min 0 W/m 6,4 km/h (2 Bft) 95,74 %
18.07.2021 01:24 18,2 C 17,2 C 15,6 C 87 % 1024,3 hPa 0,0 l/m 0 min 0 min 0 W/m 9,7 km/h (2 Bft) 95,74 %
18.07.2021 01:26 18,1 C 17,2 C 15,6 C 87 % 1024,3 hPa 0,0 l/m 0 min 0 min 0 W/m 3,2 km/h (1 Bft) 97,87 %
18.07.2021 01:28 18,1 C 17,2 C 15,6 C 87 % 1024,3 hPa 0,0 l/m 0 min 0 min 0 W/m 6,4 km/h (2 Bft) 97,87 %
18.07.2021 01:30 18,1 C 17,2 C 15,6 C 87 % 1024,3 hPa 0,0 l/m 0 min 0 min 0 W/m 3,2 km/h (1 Bft) 97,87 %
18.07.2021 01:32 18,1 C 17,2 C 15,6 C 87 % 1024,3 hPa 0,0 l/m 0 min 0 min 0 W/m 3,2 km/h (1 Bft) 97,83 %
18.07.2021 01:34 18,1 C 16,7 C 15,6 C 87 % 1024,3 hPa 0,0 l/m 0 min 0 min 0 W/m 6,4 km/h (2 Bft) 95,74 %
18.07.2021 01:36 18,0 C 16,7 C 15,6 C 87 % 1024,3 hPa 0,0 l/m 0 min 0 min 0 W/m 6,4 km/h (2 Bft) 97,87 %
18.07.2021 01:38 18,0 C 16,7 C 15,6 C 87 % 1024,3 hPa 0,0 l/m 0 min 0 min 0 W/m 6,4 km/h (2 Bft) 95,74 %
18.07.2021 01:40 18,0 C 16,7 C 15,6 C 88 % 1024,2 hPa 0,0 l/m 0 min 0 min 0 W/m 3,2 km/h (1 Bft) 97,87 %
18.07.2021 01:42 17,9 C 16,7 C 15,6 C 88 % 1024,3 hPa 0,0 l/m 0 min 0 min 0 W/m 3,2 km/h (1 Bft) 97,87 %
18.07.2021 01:44 17,9 C 16,7 C 15,6 C 88 % 1024,3 hPa 0,0 l/m 0 min 0 min 0 W/m 3,2 km/h (1 Bft) 95,65 %
18.07.2021 01:46 17,9 C 16,7 C 15,6 C 88 % 1024,3 hPa 0,0 l/m 0 min 0 min 0 W/m 3,2 km/h (1 Bft) 93,62 %
18.07.2021 01:48 17,9 C 16,7 C 15,6 C 88 % 1024,3 hPa 0,0 l/m 0 min 0 min 0 W/m 6,4 km/h (2 Bft) 95,74 %
18.07.2021 01:50 17,8 C 16,7 C 15,6 C 88 % 1024,3 hPa 0,0 l/m 0 min 0 min 0 W/m 6,4 km/h (2 Bft) 93,62 %
18.07.2021 01:52 17,8 C 16,7 C 15,6 C 88 % 1024,3 hPa 0,0 l/m 0 min 0 min 0 W/m 6,4 km/h (2 Bft) 93,62 %
18.07.2021 01:54 17,8 C 16,7 C 15,6 C 88 % 1024,3 hPa 0,0 l/m 0 min 0 min 0 W/m 3,2 km/h (1 Bft) 95,74 %
18.07.2021 01:56 17,8 C 16,7 C 15,0 C 88 % 1024,3 hPa 0,0 l/m 0 min 0 min 0 W/m 3,2 km/h (1 Bft) 93,48 %
18.07.2021 01:58 17,7 C 16,7 C 15,0 C 88 % 1024,2 hPa 0,0 l/m 0 min 0 min 0 W/m 3,2 km/h (1 Bft) 93,62 %
18.07.2021 02:00 17,7 C 16,7 C 15,0 C 88 % 1024,3 hPa 0,0 l/m 0 min 0 min 0 W/m 3,2 km/h (1 Bft) 95,74 %
18.07.2021 02:02 17,6 C 16,7 C 15,0 C 88 % 1024,2 hPa 0,0 l/m 0 min 0 min 0 W/m 3,2 km/h (1 Bft) 95,74 %
18.07.2021 02:04 17,6 C 16,7 C 15,0 C 89 % 1024,2 hPa 0,0 l/m 0 min 0 min 0 W/m 0,0 km/h (0 Bft) 95,74 %
18.07.2021 02:06 17,6 C 16,1 C 15,0 C 89 % 1024,3 hPa 0,0 l/m 0 min 0 min 0 W/m 3,2 km/h (1 Bft) 95,74 %
18.07.2021 02:08 17,6 C 16,1 C 15,0 C 89 % 1024,3 hPa 0,0 l/m 0 min 0 min 0 W/m 6,4 km/h (2 Bft) 95,65 %
18.07.2021 02:10 17,5 C 16,1 C 15,0 C 89 % 1024,3 hPa 0,0 l/m 0 min 0 min 0 W/m 3,2 km/h (1 Bft) 93,62 %
18.07.2021 02:12 17,5 C 16,1 C 15,0 C 89 % 1024,3 hPa 0,0 l/m 0 min 0 min 0 W/m 6,4 km/h (2 Bft) 95,74 %
18.07.2021 02:14 17,5 C 16,1 C 15,0 C 89 % 1024,3 hPa 0,0 l/m 0 min 0 min 0 W/m 3,2 km/h (1 Bft) 95,74 %
18.07.2021 02:16 17,5 C 16,1 C 15,0 C 89 % 1024,3 hPa 0,0 l/m 0 min 0 min 0 W/m 0,0 km/h (0 Bft) 93,62 %
18.07.2021 02:18 17,4 C 16,1 C 15,0 C 89 % 1024,3 hPa 0,0 l/m 0 min 0 min 0 W/m 0,0 km/h (0 Bft) 95,74 %
18.07.2021 02:20 17,4 C 16,1 C 15,0 C 89 % 1024,3 hPa 0,0 l/m 0 min 0 min 0 W/m 0,0 km/h (0 Bft) 95,65 %
18.07.2021 02:22 17,4 C 16,1 C 15,0 C 89 % 1024,3 hPa 0,0 l/m 0 min 0 min 0 W/m 3,2 km/h (1 Bft) 95,74 %
18.07.2021 02:24 17,4 C 16,1 C 15,0 C 89 % 1024,3 hPa 0,0 l/m 0 min 0 min 0 W/m 3,2 km/h (1 Bft) 95,74 %
18.07.2021 02:26 17,3 C 16,1 C 15,0 C 90 % 1024,2 hPa 0,0 l/m 0 min 0 min 0 W/m 3,2 km/h (1 Bft) 95,74 %
18.07.2021 02:28 17,3 C 16,1 C 15,0 C 90 % 1024,2 hPa 0,0 l/m 0 min 0 min 0 W/m 3,2 km/h (1 Bft) 95,74 %
18.07.2021 02:30 17,3 C 16,1 C 15,0 C 90 % 1024,2 hPa 0,0 l/m 0 min 0 min 0 W/m 3,2 km/h (1 Bft) 95,74 %
18.07.2021 02:32 17,2 C 16,1 C 15,0 C 90 % 1024,2 hPa 0,0 l/m 0 min 0 min 0 W/m 0,0 km/h (0 Bft) 95,65 %
18.07.2021 02:34 17,2 C 16,1 C 15,0 C 90 % 1024,2 hPa 0,0 l/m 0 min 0 min 0 W/m 0,0 km/h (0 Bft) 95,74 %
18.07.2021 02:36 17,1 C 16,1 C 15,0 C 90 % 1024,2 hPa 0,0 l/m 0 min 0 min 0 W/m 3,2 km/h (1 Bft) 97,87 %
18.07.2021 02:38 17,1 C 16,1 C 15,0 C 90 % 1024,2 hPa 0,0 l/m 0 min 0 min 0 W/m 3,2 km/h (1 Bft) 97,14 %
18.07.2021 02:40 17,1 C 16,1 C 15,0 C 90 % 1024,2 hPa 0,0 l/m 0 min 0 min 0 W/m 3,2 km/h (1 Bft) 98,31 %
18.07.2021 02:42 17,1 C 16,1 C 15,0 C 90 % 1024,2 hPa 0,0 l/m 0 min 0 min 0 W/m 3,2 km/h (1 Bft) 97,83 %
18.07.2021 02:44 17,0 C 16,1 C 15,0 C 90 % 1024,2 hPa 0,0 l/m 0 min 0 min 0 W/m 3,2 km/h (1 Bft) 100,00 %
18.07.2021 02:46 17,0 C 16,1 C 15,0 C 91 % 1024,2 hPa 0,0 l/m 0 min 0 min 0 W/m 0,0 km/h (0 Bft) 100,00 %
18.07.2021 02:48 17,0 C 15,6 C 15,0 C 91 % 1024,2 hPa 0,0 l/m 0 min 0 min 0 W/m 3,2 km/h (1 Bft) 100,00 %
18.07.2021 02:50 17,0 C 15,6 C 15,0 C 91 % 1024,1 hPa 0,0 l/m 0 min 0 min 0 W/m 0,0 km/h (0 Bft) 100,00 %
18.07.2021 02:52 17,0 C 15,6 C 15,0 C 91 % 1024,2 hPa 0,0 l/m 0 min 0 min 0 W/m 3,2 km/h (1 Bft) 97,87 %
18.07.2021 02:54 16,9 C 15,6 C 15,0 C 91 % 1024,1 hPa 0,0 l/m 0 min 0 min 0 W/m 0,0 km/h (0 Bft) 100,00 %
18.07.2021 02:56 16,9 C 15,6 C 15,0 C 91 % 1024,2 hPa 0,0 l/m 0 min 0 min 0 W/m 3,2 km/h (1 Bft) 97,83 %
18.07.2021 02:58 16,9 C 15,6 C 15,0 C 91 % 1024,2 hPa 0,0 l/m 0 min 0 min 0 W/m 3,2 km/h (1 Bft) 100,00 %
18.07.2021 03:00 16,9 C 15,6 C 15,0 C 91 % 1024,2 hPa 0,0 l/m 0 min 0 min 0 W/m 3,2 km/h (1 Bft) 97,87 %
18.07.2021 03:02 16,9 C 15,6 C 15,0 C 91 % 1024,2 hPa 0,0 l/m 0 min 0 min 0 W/m 9,7 km/h (2 Bft) 95,74 %
18.07.2021 03:04 16,8 C 15,6 C 15,0 C 91 % 1024,1 hPa 0,0 l/m 0 min 0 min 0 W/m 6,4 km/h (2 Bft) 97,87 %
18.07.2021 03:06 16,8 C 15,6 C 15,0 C 91 % 1024,2 hPa 0,0 l/m 0 min 0 min 0 W/m 3,2 km/h (1 Bft) 97,83 %
18.07.2021 03:08 16,8 C 15,6 C 15,0 C 92 % 1024,1 hPa 0,0 l/m 0 min 0 min 0 W/m 3,2 km/h (1 Bft) 97,87 %
18.07.2021 03:10 16,8 C 15,6 C 15,0 C 92 % 1024,2 hPa 0,0 l/m 0 min 0 min 0 W/m 3,2 km/h (1 Bft) 100,00 %
18.07.2021 03:12 16,8 C 15,6 C 15,0 C 92 % 1024,2 hPa 0,0 l/m 0 min 0 min 0 W/m 6,4 km/h (2 Bft) 100,00 %
18.07.2021 03:14 16,7 C 15,6 C 15,0 C 92 % 1024,2 hPa 0,0 l/m 0 min 0 min 0 W/m 3,2 km/h (1 Bft) 100,00 %
18.07.2021 03:16 16,7 C 15,6 C 15,0 C 92 % 1024,2 hPa 0,0 l/m 0 min 0 min 0 W/m 6,4 km/h (2 Bft) 95,74 %
18.07.2021 03:18 16,6 C 15,6 C 15,0 C 92 % 1024,2 hPa 0,0 l/m 0 min 0 min 0 W/m 3,2 km/h (1 Bft) 94,29 %
18.07.2021 03:20 16,6 C 15,6 C 15,0 C 92 % 1024,1 hPa 0,0 l/m 0 min 0 min 0 W/m 0,0 km/h (0 Bft) 98,28 %
18.07.2021 03:22 16,6 C 15,6 C 15,0 C 92 % 1024,1 hPa 0,0 l/m 0 min 0 min 0 W/m 3,2 km/h (1 Bft) 97,87 %
18.07.2021 03:24 16,6 C 15,6 C 15,0 C 92 % 1024,1 hPa 0,0 l/m 0 min 0 min 0 W/m 9,7 km/h (2 Bft) 95,74 %
18.07.2021 03:26 16,6 C 15,6 C 15,0 C 92 % 1024,1 hPa 0,0 l/m 0 min 0 min 0 W/m 6,4 km/h (2 Bft) 97,87 %
18.07.2021 03:28 16,6 C 15,6 C 15,0 C 92 % 1024,1 hPa 0,0 l/m 0 min 0 min 0 W/m 0,0 km/h (0 Bft) 97,87 %
18.07.2021 03:30 16,6 C 15,6 C 15,0 C 92 % 1024,2 hPa 0,0 l/m 0 min 0 min 0 W/m 0,0 km/h (0 Bft) 97,14 %
18.07.2021 03:32 16,6 C 15,6 C 15,0 C 92 % 1024,1 hPa 0,0 l/m 0 min 0 min 0 W/m 3,2 km/h (1 Bft) 94,83 %
18.07.2021 03:34 16,5 C 15,6 C 15,0 C 92 % 1024,1 hPa 0,0 l/m 0 min 0 min 0 W/m 3,2 km/h (1 Bft) 97,87 %
18.07.2021 03:36 16,5 C 15,6 C 15,0 C 92 % 1024,1 hPa 0,0 l/m 0 min 0 min 0 W/m 3,2 km/h (1 Bft) 97,87 %
18.07.2021 03:38 16,5 C 15,6 C 15,0 C 93 % 1024,1 hPa 0,0 l/m 0 min 0 min 0 W/m 3,2 km/h (1 Bft) 100,00 %
18.07.2021 03:40 16,5 C 15,6 C 15,0 C 93 % 1024,1 hPa 0,0 l/m 0 min 0 min 0 W/m 0,0 km/h (0 Bft) 95,74 %
18.07.2021 03:42 16,5 C 15,6 C 15,0 C 93 % 1024,1 hPa 0,0 l/m 0 min 0 min 0 W/m 3,2 km/h (1 Bft) 97,87 %
18.07.2021 03:44 16,5 C 15,6 C 15,0 C 93 % 1024,1 hPa 0,0 l/m 0 min 0 min 0 W/m 3,2 km/h (1 Bft) 97,87 %
18.07.2021 03:46 16,5 C 15,6 C 15,0 C 93 % 1024,1 hPa 0,0 l/m 0 min 0 min 0 W/m 0,0 km/h (0 Bft) 97,83 %
18.07.2021 03:48 16,4 C 15,6 C 15,0 C 93 % 1024,1 hPa 0,0 l/m 0 min 0 min 0 W/m 3,2 km/h (1 Bft) 97,87 %
18.07.2021 03:50 16,4 C 15,6 C 15,0 C 93 % 1024,1 hPa 0,0 l/m 0 min 0 min 0 W/m 3,2 km/h (1 Bft) 97,87 %
18.07.2021 03:52 16,4 C 15,6 C 15,0 C 93 % 1024,0 hPa 0,0 l/m 0 min 0 min 0 W/m 0,0 km/h (0 Bft) 97,87 %
18.07.2021 03:54 16,4 C 15,6 C 15,0 C 93 % 1024,0 hPa 0,0 l/m 0 min 0 min 0 W/m 0,0 km/h (0 Bft) 97,87 %
18.07.2021 03:56 16,4 C 15,6 C 15,0 C 93 % 1023,9 hPa 0,0 l/m 0 min 0 min 0 W/m 3,2 km/h (1 Bft) 100,00 %
18.07.2021 03:58 16,4 C 15,6 C 15,0 C 93 % 1023,9 hPa 0,0 l/m 0 min 0 min 0 W/m 0,0 km/h (0 Bft) 100,00 %
18.07.2021 04:00 16,3 C 15,0 C 15,0 C 93 % 1024,0 hPa 0,0 l/m 0 min 0 min 0 W/m 0,0 km/h (0 Bft) 100,00 %
18.07.2021 04:02 16,3 C 15,0 C 15,0 C 93 % 1024,0 hPa 0,0 l/m 0 min 0 min 0 W/m 6,4 km/h (2 Bft) 90,91 %
18.07.2021 04:04 16,3 C 15,0 C 15,0 C 93 % 1024,0 hPa 0,0 l/m 0 min 0 min 0 W/m 6,4 km/h (2 Bft) 100,00 %
18.07.2021 04:06 16,3 C 15,0 C 15,0 C 93 % 1024,0 hPa 0,0 l/m 0 min 0 min 0 W/m 3,2 km/h (1 Bft) 97,83 %
18.07.2021 04:08 16,3 C 15,0 C 14,5 C 93 % 1024,0 hPa 0,0 l/m 0 min 0 min 0 W/m 0,0 km/h (0 Bft) 100,00 %
18.07.2021 04:10 16,3 C 15,0 C 15,0 C 93 % 1024,0 hPa 0,0 l/m 0 min 0 min 0 W/m 3,2 km/h (1 Bft) 100,00 %
18.07.2021 04:12 16,3 C 15,0 C 15,0 C 93 % 1024,0 hPa 0,0 l/m 0 min 0 min 0 W/m 3,2 km/h (1 Bft) 100,00 %
18.07.2021 04:14 16,3 C 15,0 C 15,0 C 93 % 1024,0 hPa 0,0 l/m 0 min 0 min 0 W/m 6,4 km/h (2 Bft) 100,00 %
18.07.2021 04:16 16,2 C 15,0 C 15,0 C 93 % 1024,0 hPa 0,0 l/m 0 min 0 min 0 W/m 3,2 km/h (1 Bft) 100,00 %
18.07.2021 04:18 16,2 C 15,0 C 15,0 C 93 % 1024,0 hPa 0,0 l/m 0 min 0 min 0 W/m 3,2 km/h (1 Bft) 100,00 %
18.07.2021 04:20 16,2 C 15,0 C 15,0 C 93 % 1024,0 hPa 0,0 l/m 0 min 0 min 0 W/m 3,2 km/h (1 Bft) 95,65 %
18.07.2021 04:22 16,2 C 15,0 C 15,0 C 93 % 1024,0 hPa 0,0 l/m 0 min 0 min 0 W/m 3,2 km/h (1 Bft) 61,70 %
18.07.2021 04:24 16,1 C 15,0 C 15,0 C 94 % 1024,0 hPa 0,0 l/m 0 min 0 min 0 W/m 3,2 km/h (1 Bft) 100,00 %
18.07.2021 04:26 16,1 C 15,0 C 14,5 C 94 % 1024,0 hPa 0,0 l/m 0 min 0 min 0 W/m 3,2 km/h (1 Bft) 100,00 %
18.07.2021 04:28 16,1 C 15,0 C 14,5 C 94 % 1024,0 hPa 0,0 l/m 0 min 0 min 0 W/m 6,4 km/h (2 Bft) 100,00 %
18.07.2021 04:30 16,1 C 15,0 C 15,0 C 94 % 1024,0 hPa 0,0 l/m 0 min 0 min 0 W/m 3,2 km/h (1 Bft) 100,00 %
18.07.2021 04:32 16,1 C 15,0 C 14,5 C 94 % 1023,9 hPa 0,0 l/m 0 min 0 min 0 W/m 3,2 km/h (1 Bft) 100,00 %
18.07.2021 04:34 16,1 C 15,0 C 15,0 C 94 % 1024,0 hPa 0,0 l/m 0 min 0 min 0 W/m 3,2 km/h (1 Bft) 100,00 %
18.07.2021 04:36 16,1 C 15,0 C 15,0 C 94 % 1024,0 hPa 0,0 l/m 0 min 0 min 0 W/m 3,2 km/h (1 Bft) 97,87 %
18.07.2021 04:38 16,1 C 15,0 C 14,5 C 94 % 1024,0 hPa 0,0 l/m 0 min 0 min 0 W/m 3,2 km/h (1 Bft) 100,00 %
18.07.2021 04:40 16,0 C 15,0 C 14,5 C 94 % 1024,0 hPa 0,0 l/m 0 min 0 min 0 W/m 3,2 km/h (1 Bft) 100,00 %
18.07.2021 04:42 16,0 C 15,0 C 14,5 C 94 % 1024,0 hPa 0,0 l/m 0 min 0 min 0 W/m 3,2 km/h (1 Bft) 100,00 %
18.07.2021 04:44 16,0 C 15,0 C 14,5 C 94 % 1023,9 hPa 0,0 l/m 0 min 0 min 0 W/m 6,4 km/h (2 Bft) 100,00 %
18.07.2021 04:46 16,0 C 15,0 C 14,5 C 94 % 1023,9 hPa 0,0 l/m 0 min 0 min 0 W/m 6,4 km/h (2 Bft) 100,00 %
18.07.2021 04:48 16,0 C 15,0 C 15,0 C 94 % 1023,9 hPa 0,0 l/m 0 min 0 min 0 W/m 6,4 km/h (2 Bft) 100,00 %
18.07.2021 04:50 16,0 C 15,0 C 15,0 C 94 % 1023,9 hPa 0,0 l/m 0 min 0 min 0 W/m 3,2 km/h (1 Bft) 95,74 %
18.07.2021 04:52 16,0 C 15,0 C 15,0 C 94 % 1023,9 hPa 0,0 l/m 0 min 0 min 0 W/m 0,0 km/h (0 Bft) 100,00 %
18.07.2021 04:54 15,9 C 15,0 C 14,5 C 94 % 1023,9 hPa 0,0 l/m 0 min 0 min 0 W/m 3,2 km/h (1 Bft) 97,83 %
18.07.2021 04:56 15,9 C 15,0 C 15,0 C 94 % 1023,8 hPa 0,0 l/m 0 min 0 min 0 W/m 3,2 km/h (1 Bft) 97,87 %
18.07.2021 04:58 15,9 C 15,0 C 14,5 C 94 % 1023,9 hPa 0,0 l/m 0 min 0 min 0 W/m 3,2 km/h (1 Bft) 97,87 %
18.07.2021 05:00 15,9 C 15,0 C 14,5 C 94 % 1023,9 hPa 0,0 l/m 0 min 0 min 0 W/m 3,2 km/h (1 Bft) 97,87 %
18.07.2021 05:02 15,9 C 15,0 C 14,5 C 94 % 1023,9 hPa 0,0 l/m 0 min 0 min 0 W/m 3,2 km/h (1 Bft) 97,87 %
18.07.2021 05:04 15,9 C 15,0 C 14,5 C 94 % 1023,9 hPa 0,0 l/m 0 min 0 min 0 W/m 3,2 km/h (1 Bft) 97,92 %
18.07.2021 05:06 15,8 C 15,0 C 14,5 C 94 % 1023,9 hPa 0,0 l/m 0 min 0 min 0 W/m 3,2 km/h (1 Bft) 97,83 %
18.07.2021 05:08 15,8 C 15,0 C 14,5 C 94 % 1023,9 hPa 0,0 l/m 0 min 0 min 0 W/m 3,2 km/h (1 Bft) 97,87 %
18.07.2021 05:10 15,8 C 14,4 C 14,5 C 94 % 1023,8 hPa 0,0 l/m 0 min 0 min 0 W/m 3,2 km/h (1 Bft) 97,87 %
18.07.2021 05:12 15,7 C 14,4 C 14,5 C 94 % 1023,9 hPa 0,0 l/m 0 min 0 min 0 W/m 3,2 km/h (1 Bft) 95,74 %
18.07.2021 05:14 15,7 C 14,4 C 14,5 C 94 % 1023,9 hPa 0,0 l/m 0 min 0 min 0 W/m 0,0 km/h (0 Bft) 97,87 %
18.07.2021 05:16 15,6 C 14,4 C 14,5 C 94 % 1023,9 hPa 0,0 l/m 0 min 0 min 0 W/m 3,2 km/h (1 Bft) 97,87 %
18.07.2021 05:18 15,6 C 14,4 C 14,5 C 94 % 1023,8 hPa 0,0 l/m 0 min 0 min 0 W/m 0,0 km/h (0 Bft) 97,83 %
18.07.2021 05:20 15,6 C 14,4 C 14,5 C 94 % 1023,9 hPa 0,0 l/m 0 min 0 min 0 W/m 0,0 km/h (0 Bft) 95,74 %
18.07.2021 05:22 15,6 C 14,4 C 14,5 C 94 % 1023,8 hPa 0,0 l/m 0 min 0 min 0 W/m 0,0 km/h (0 Bft) 97,87 %
18.07.2021 05:24 15,6 C 14,4 C 15,0 C 94 % 1023,8 hPa 0,0 l/m 0 min 0 min 0 W/m 0,0 km/h (0 Bft) 97,87 %
18.07.2021 05:26 15,6 C 14,4 C 14,5 C 94 % 1023,8 hPa 0,0 l/m 0 min 0 min 0 W/m 3,2 km/h (1 Bft) 93,62 %
18.07.2021 05:28 15,6 C 14,4 C 14,5 C 94 % 1023,8 hPa 0,0 l/m 0 min 0 min 0 W/m 0,0 km/h (0 Bft) 95,74 %
18.07.2021 05:30 15,6 C 14,4 C 14,5 C 94 % 1023,9 hPa 0,0 l/m 0 min 0 min 0 W/m 0,0 km/h (0 Bft) 97,83 %
18.07.2021 05:32 15,5 C 14,4 C 14,5 C 94 % 1023,9 hPa 0,0 l/m 0 min 0 min 0 W/m 3,2 km/h (1 Bft) 97,87 %
18.07.2021 05:34 15,5 C 14,4 C 14,5 C 94 % 1023,9 hPa 0,0 l/m 0 min 0 min 0 W/m 3,2 km/h (1 Bft) 93,62 %
18.07.2021 05:36 15,5 C 14,4 C 14,5 C 94 % 1023,8 hPa 0,0 l/m 0 min 0 min 0 W/m 3,2 km/h (1 Bft) 95,74 %
18.07.2021 05:38 15,5 C 14,4 C 14,5 C 95 % 1023,8 hPa 0,0 l/m 0 min 0 min 0 W/m 0,0 km/h (0 Bft) 97,87 %
18.07.2021 05:40 15,5 C 14,4 C 14,5 C 95 % 1023,8 hPa 0,0 l/m 0 min 0 min 0 W/m 3,2 km/h (1 Bft) 95,74 %
18.07.2021 05:42 15,4 C 14,4 C 14,5 C 95 % 1023,8 hPa 0,0 l/m 0 min 0 min 0 W/m 3,2 km/h (1 Bft) 95,65 %
18.07.2021 05:44 15,4 C 14,4 C 14,5 C 95 % 1023,8 hPa 0,0 l/m 0 min 0 min 0 W/m 0,0 km/h (0 Bft) 95,74 %
18.07.2021 05:46 15,4 C 14,4 C 14,5 C 95 % 1023,8 hPa 0,0 l/m 0 min 0 min 0 W/m 0,0 km/h (0 Bft) 93,62 %
18.07.2021 05:48 15,4 C 14,4 C 14,5 C 95 % 1023,8 hPa 0,0 l/m 0 min 0 min 4 W/m 0,0 km/h (0 Bft) 95,74 %
18.07.2021 05:50 15,4 C 14,4 C 14,5 C 95 % 1023,8 hPa 0,0 l/m 0 min 0 min 5 W/m 3,2 km/h (1 Bft) 95,74 %
18.07.2021 05:52 15,4 C 14,4 C 14,5 C 95 % 1023,8 hPa 0,0 l/m 0 min 0 min 5 W/m 3,2 km/h (1 Bft) 97,83 %
18.07.2021 05:54 15,4 C 14,4 C 14,5 C 95 % 1023,9 hPa 0,0 l/m 0 min 0 min 7 W/m 3,2 km/h (1 Bft) 97,87 %
18.07.2021 05:56 15,4 C 14,4 C 14,5 C 95 % 1023,9 hPa 0,0 l/m 0 min 0 min 7 W/m 3,2 km/h (1 Bft) 97,87 %
18.07.2021 05:58 15,4 C 14,4 C 14,5 C 95 % 1023,9 hPa 0,0 l/m 0 min 0 min 8 W/m 6,4 km/h (2 Bft) 95,74 %
18.07.2021 06:00 15,4 C 14,4 C 14,5 C 95 % 1023,9 hPa 0,0 l/m 0 min 0 min 9 W/m 3,2 km/h (1 Bft) 97,87 %
18.07.2021 06:02 15,3 C 14,4 C 14,5 C 95 % 1023,9 hPa 0,0 l/m 0 min 0 min 10 W/m 0,0 km/h (0 Bft) 95,74 %
18.07.2021 06:04 15,3 C 14,4 C 14,5 C 95 % 1023,9 hPa 0,0 l/m 0 min 0 min 11 W/m 6,4 km/h (2 Bft) 97,87 %
18.07.2021 06:08 15,3 C 14,4 C 14,5 C 95 % 1023,9 hPa 0,0 l/m 0 min 0 min 11 W/m 3,2 km/h (1 Bft) 97,87 %
18.07.2021 06:10 15,3 C 14,4 C 14,5 C 95 % 1023,9 hPa 0,0 l/m 0 min 0 min 12 W/m 3,2 km/h (1 Bft) 97,87 %
18.07.2021 06:12 15,3 C 14,4 C 14,5 C 95 % 1024,0 hPa 0,0 l/m 0 min 0 min 14 W/m 3,2 km/h (1 Bft) 97,87 %
18.07.2021 06:14 15,3 C 14,4 C 14,5 C 95 % 1023,9 hPa 0,0 l/m 0 min 0 min 14 W/m 0,0 km/h (0 Bft) 97,87 %
18.07.2021 06:16 15,2 C 14,4 C 14,5 C 95 % 1023,9 hPa 0,0 l/m 0 min 0 min 14 W/m 0,0 km/h (0 Bft) 97,83 %
18.07.2021 06:18 15,3 C 14,4 C 14,5 C 95 % 1023,9 hPa 0,0 l/m 0 min 0 min 16 W/m 0,0 km/h (0 Bft) 97,87 %
18.07.2021 06:20 15,2 C 14,4 C 14,5 C 95 % 1023,9 hPa 0,0 l/m 0 min 0 min 17 W/m 0,0 km/h (0 Bft) 95,74 %
18.07.2021 06:22 15,2 C 14,4 C 14,5 C 95 % 1023,9 hPa 0,0 l/m 0 min 0 min 18 W/m 3,2 km/h (1 Bft) 100,00 %
18.07.2021 06:24 15,2 C 14,4 C 14,5 C 95 % 1023,9 hPa 0,0 l/m 0 min 0 min 18 W/m 3,2 km/h (1 Bft) 100,00 %
18.07.2021 06:26 15,2 C 14,4 C 14,5 C 95 % 1023,9 hPa 0,0 l/m 0 min 0 min 19 W/m 3,2 km/h (1 Bft) 100,00 %
18.07.2021 06:28 15,2 C 14,4 C 14,5 C 95 % 1024,0 hPa 0,0 l/m 0 min 0 min 20 W/m 3,2 km/h (1 Bft) 100,00 %
18.07.2021 06:30 15,2 C 14,4 C 14,5 C 95 % 1023,9 hPa 0,0 l/m 0 min 0 min 21 W/m 0,0 km/h (0 Bft) 100,00 %
18.07.2021 06:32 15,2 C 14,4 C 14,5 C 95 % 1024,0 hPa 0,0 l/m 0 min 0 min 21 W/m 0,0 km/h (0 Bft) 100,00 %
18.07.2021 06:34 15,2 C 14,4 C 15,0 C 95 % 1023,9 hPa 0,0 l/m 0 min 0 min 22 W/m 0,0 km/h (0 Bft) 100,00 %
18.07.2021 06:36 15,2 C 14,4 C 15,0 C 95 % 1023,9 hPa 0,0 l/m 0 min 0 min 23 W/m 0,0 km/h (0 Bft) 100,00 %
18.07.2021 06:38 15,2 C 14,4 C 15,0 C 96 % 1024,0 hPa 0,0 l/m 0 min 0 min 25 W/m 0,0 km/h (0 Bft) 100,00 %
18.07.2021 06:40 15,2 C 14,4 C 15,0 C 96 % 1024,0 hPa 0,0 l/m 0 min 0 min 25 W/m 0,0 km/h (0 Bft) 100,00 %
18.07.2021 06:42 15,2 C 14,4 C 15,0 C 96 % 1024,1 hPa 0,0 l/m 0 min 0 min 26 W/m 3,2 km/h (1 Bft) 100,00 %
18.07.2021 06:44 15,3 C 14,4 C 15,0 C 96 % 1024,1 hPa 0,0 l/m 0 min 0 min 27 W/m 0,0 km/h (0 Bft) 97,87 %
18.07.2021 06:46 15,3 C 14,4 C 15,0 C 96 % 1024,1 hPa 0,0 l/m 0 min 0 min 28 W/m 0,0 km/h (0 Bft) 100,00 %
18.07.2021 06:48 15,3 C 14,4 C 15,0 C 96 % 1024,1 hPa 0,0 l/m 0 min 0 min 29 W/m 3,2 km/h (1 Bft) 100,00 %
18.07.2021 06:50 15,3 C 15,0 C 15,0 C 96 % 1024,2 hPa 0,0 l/m 0 min 0 min 30 W/m 0,0 km/h (0 Bft) 100,00 %
18.07.2021 06:52 15,3 C 15,0 C 15,0 C 96 % 1024,2 hPa 0,0 l/m 0 min 0 min 31 W/m 0,0 km/h (0 Bft) 100,00 %
18.07.2021 06:54 15,3 C 15,0 C 15,0 C 96 % 1024,2 hPa 0,0 l/m 0 min 0 min 32 W/m 0,0 km/h (0 Bft) 100,00 %
18.07.2021 06:56 15,4 C 15,0 C 15,0 C 96 % 1024,2 hPa 0,0 l/m 0 min 0 min 33 W/m 0,0 km/h (0 Bft) 100,00 %
18.07.2021 06:58 15,4 C 15,0 C 15,0 C 96 % 1024,2 hPa 0,0 l/m 0 min 0 min 33 W/m 0,0 km/h (0 Bft) 97,87 %
18.07.2021 07:00 15,4 C 15,0 C 15,6 C 96 % 1024,2 hPa 0,0 l/m 0 min 0 min 34 W/m 0,0 km/h (0 Bft) 100,00 %
18.07.2021 07:02 15,5 C 15,0 C 15,0 C 96 % 1024,2 hPa 0,0 l/m 0 min 0 min 35 W/m 0,0 km/h (0 Bft) 100,00 %
18.07.2021 07:04 15,5 C 15,0 C 15,0 C 96 % 1024,2 hPa 0,0 l/m 0 min 0 min 35 W/m 0,0 km/h (0 Bft) 97,87 %
18.07.2021 07:06 15,5 C 15,0 C 15,6 C 96 % 1024,2 hPa 0,0 l/m 0 min 0 min 36 W/m 3,2 km/h (1 Bft) 95,74 %
18.07.2021 07:08 15,5 C 15,0 C 15,6 C 96 % 1024,3 hPa 0,0 l/m 0 min 0 min 37 W/m 0,0 km/h (0 Bft) 100,00 %
18.07.2021 07:10 15,6 C 15,0 C 15,6 C 96 % 1024,2 hPa 0,0 l/m 0 min 0 min 39 W/m 0,0 km/h (0 Bft) 100,00 %
18.07.2021 07:12 15,6 C 15,0 C 15,6 C 96 % 1024,3 hPa 0,0 l/m 0 min 0 min 39 W/m 0,0 km/h (0 Bft) 100,00 %
18.07.2021 07:14 15,6 C 15,0 C 15,6 C 96 % 1024,2 hPa 0,0 l/m 0 min 0 min 40 W/m 3,2 km/h (1 Bft) 100,00 %
18.07.2021 07:16 15,6 C 15,0 C 15,6 C 96 % 1024,2 hPa 0,0 l/m 0 min 0 min 42 W/m 3,2 km/h (1 Bft) 100,00 %
18.07.2021 07:18 15,7 C 15,6 C 15,6 C 96 % 1024,2 hPa 0,0 l/m 0 min 0 min 43 W/m 3,2 km/h (1 Bft) 97,87 %
18.07.2021 07:20 15,7 C 15,6 C 15,6 C 96 % 1024,2 hPa 0,0 l/m 0 min 0 min 42 W/m 3,2 km/h (1 Bft) 100,00 %
18.07.2021 07:22 15,8 C 15,6 C 15,6 C 96 % 1024,2 hPa 0,0 l/m 0 min 0 min 42 W/m 3,2 km/h (1 Bft) 100,00 %
18.07.2021 07:24 15,8 C 15,6 C 15,6 C 96 % 1024,2 hPa 0,0 l/m 0 min 0 min 43 W/m 3,2 km/h (1 Bft) 100,00 %
18.07.2021 07:26 15,8 C 15,6 C 15,6 C 96 % 1024,2 hPa 0,0 l/m 0 min 0 min 44 W/m 3,2 km/h (1 Bft) 100,00 %
18.07.2021 07:28 15,9 C 15,6 C 15,6 C 96 % 1024,1 hPa 0,0 l/m 0 min 0 min 44 W/m 3,2 km/h (1 Bft) 100,00 %
18.07.2021 07:30 15,9 C 15,6 C 15,6 C 96 % 1024,1 hPa 0,0 l/m 0 min 0 min 45 W/m 0,0 km/h (0 Bft) 100,00 %
18.07.2021 07:32 15,9 C 15,6 C 16,1 C 97 % 1024,1 hPa 0,0 l/m 0 min 0 min 45 W/m 3,2 km/h (1 Bft) 100,00 %
18.07.2021 07:34 16,0 C 15,6 C 16,1 C 97 % 1024,1 hPa 0,0 l/m 0 min 0 min 46 W/m 3,2 km/h (1 Bft) 100,00 %
18.07.2021 07:36 16,0 C 15,6 C 16,1 C 97 % 1024,1 hPa 0,0 l/m 0 min 0 min 46 W/m 3,2 km/h (1 Bft) 100,00 %
18.07.2021 07:38 16,0 C 15,6 C 16,1 C 97 % 1024,1 hPa 0,0 l/m 0 min 0 min 47 W/m 3,2 km/h (1 Bft) 100,00 %
18.07.2021 07:40 16,0 C 15,6 C 16,1 C 97 % 1024,1 hPa 0,0 l/m 0 min 0 min 47 W/m 3,2 km/h (1 Bft) 100,00 %
18.07.2021 07:42 16,1 C 16,1 C 16,1 C 97 % 1024,2 hPa 0,0 l/m 0 min 0 min 47 W/m 3,2 km/h (1 Bft) 100,00 %
18.07.2021 07:44 16,1 C 16,1 C 16,1 C 97 % 1024,2 hPa 0,0 l/m 0 min 0 min 49 W/m 0,0 km/h (0 Bft) 100,00 %
18.07.2021 07:46 16,2 C 16,1 C 16,1 C 97 % 1024,2 hPa 0,0 l/m 0 min 0 min 49 W/m 6,4 km/h (2 Bft) 97,87 %
18.07.2021 07:48 16,3 C 16,1 C 16,1 C 97 % 1024,2 hPa 0,0 l/m 0 min 0 min 51 W/m 3,2 km/h (1 Bft) 97,87 %
18.07.2021 07:50 16,3 C 16,1 C 16,1 C 97 % 1024,3 hPa 0,0 l/m 0 min 0 min 52 W/m 3,2 km/h (1 Bft) 100,00 %
18.07.2021 07:52 16,3 C 16,1 C 16,7 C 97 % 1024,2 hPa 0,0 l/m 0 min 0 min 53 W/m 6,4 km/h (2 Bft) 100,00 %
18.07.2021 07:54 16,4 C 16,1 C 16,7 C 97 % 1024,3 hPa 0,0 l/m 0 min 0 min 54 W/m 3,2 km/h (1 Bft) 97,87 %
18.07.2021 07:56 16,4 C 16,7 C 16,7 C 97 % 1024,2 hPa 0,0 l/m 0 min 0 min 54 W/m 6,4 km/h (2 Bft) 97,87 %
18.07.2021 07:58 16,4 C 16,7 C 16,7 C 97 % 1024,3 hPa 0,0 l/m 0 min 0 min 55 W/m 6,4 km/h (2 Bft) 100,00 %
18.07.2021 08:00 16,5 C 16,7 C 16,7 C 97 % 1024,3 hPa 0,0 l/m 0 min 0 min 71 W/m 6,4 km/h (2 Bft) 95,74 %
18.07.2021 08:02 16,5 C 16,7 C 16,7 C 97 % 1024,3 hPa 0,0 l/m 2 min 0 min 188 W/m 6,4 km/h (2 Bft) 91,30 %
18.07.2021 08:04 16,5 C 16,7 C 16,7 C 97 % 1024,2 hPa 0,0 l/m 2 min 0 min 245 W/m 6,4 km/h (2 Bft) 93,62 %
18.07.2021 08:06 16,6 C 16,7 C 16,7 C 97 % 1024,3 hPa 0,0 l/m 2 min 0 min 251 W/m 3,2 km/h (1 Bft) 95,74 %
18.07.2021 08:08 16,6 C 16,7 C 17,3 C 97 % 1024,3 hPa 0,0 l/m 2 min 0 min 258 W/m 12,9 km/h (3 Bft) 93,62 %
18.07.2021 08:10 16,6 C 16,7 C 17,3 C 97 % 1024,3 hPa 0,0 l/m 2 min 0 min 264 W/m 3,2 km/h (1 Bft) 93,62 %
18.07.2021 08:12 16,6 C 17,2 C 17,3 C 97 % 1024,4 hPa 0,0 l/m 2 min 0 min 268 W/m 3,2 km/h (1 Bft) 93,62 %
18.07.2021 08:14 16,8 C 17,2 C 17,3 C 97 % 1024,3 hPa 0,0 l/m 2 min 0 min 273 W/m 6,4 km/h (2 Bft) 93,62 %
18.07.2021 08:16 16,8 C 17,8 C 17,3 C 97 % 1024,3 hPa 0,0 l/m 2 min 0 min 276 W/m 6,4 km/h (2 Bft) 93,48 %
18.07.2021 08:18 16,9 C 18,3 C 17,3 C 97 % 1024,3 hPa 0,0 l/m 2 min 0 min 284 W/m 3,2 km/h (1 Bft) 93,62 %
18.07.2021 08:20 16,9 C 18,3 C 17,3 C 97 % 1024,3 hPa 0,0 l/m 2 min 0 min 275 W/m 3,2 km/h (1 Bft) 93,62 %
18.07.2021 08:22 17,0 C 18,9 C 17,3 C 97 % 1024,3 hPa 0,0 l/m 2 min 0 min 210 W/m 9,7 km/h (2 Bft) 91,49 %
18.07.2021 08:24 17,0 C 19,4 C 17,3 C 97 % 1024,3 hPa 0,0 l/m 2 min 0 min 206 W/m 9,7 km/h (2 Bft) 91,49 %
18.07.2021 08:26 17,1 C 19,4 C 17,3 C 97 % 1024,3 hPa 0,0 l/m 2 min 0 min 266 W/m 6,4 km/h (2 Bft) 95,74 %
18.07.2021 08:28 17,2 C 19,4 C 17,8 C 97 % 1024,3 hPa 0,0 l/m 2 min 0 min 308 W/m 6,4 km/h (2 Bft) 93,48 %
18.07.2021 08:30 17,3 C 20,0 C 17,8 C 97 % 1024,3 hPa 0,0 l/m 2 min 0 min 321 W/m 12,9 km/h (3 Bft) 93,62 %
18.07.2021 08:32 17,4 C 20,6 C 17,8 C 97 % 1024,4 hPa 0,0 l/m 2 min 0 min 330 W/m 6,4 km/h (2 Bft) 91,49 %
18.07.2021 08:34 17,4 C 20,6 C 18,4 C 97 % 1024,3 hPa 0,0 l/m 2 min 0 min 339 W/m 6,4 km/h (2 Bft) 91,49 %
18.07.2021 08:36 17,5 C 21,1 C 18,4 C 97 % 1024,4 hPa 0,0 l/m 2 min 0 min 346 W/m 6,4 km/h (2 Bft) 93,62 %
18.07.2021 08:38 17,6 C 21,1 C 18,9 C 97 % 1024,4 hPa 0,0 l/m 2 min 0 min 355 W/m 6,4 km/h (2 Bft) 91,49 %
18.07.2021 08:40 17,8 C 21,7 C 19,5 C 97 % 1024,4 hPa 0,0 l/m 2 min 0 min 360 W/m 6,4 km/h (2 Bft) 97,14 %
18.07.2021 08:42 17,9 C 21,7 C 19,5 C 97 % 1024,4 hPa 0,0 l/m 2 min 0 min 369 W/m 6,4 km/h (2 Bft) 93,48 %
18.07.2021 08:44 17,9 C 22,2 C 20,0 C 96 % 1024,4 hPa 0,0 l/m 2 min 0 min 374 W/m 3,2 km/h (1 Bft) 93,62 %
18.07.2021 08:46 18,0 C 22,2 C 20,0 C 96 % 1024,4 hPa 0,0 l/m 2 min 0 min 384 W/m 6,4 km/h (2 Bft) 95,74 %
18.07.2021 08:48 18,1 C 22,2 C 20,6 C 96 % 1024,4 hPa 0,0 l/m 2 min 0 min 390 W/m 6,4 km/h (2 Bft) 95,74 %
18.07.2021 08:50 18,3 C 22,8 C 20,6 C 96 % 1024,4 hPa 0,0 l/m 2 min 0 min 397 W/m 6,4 km/h (2 Bft) 95,74 %
18.07.2021 08:52 18,5 C 22,8 C 21,1 C 95 % 1024,5 hPa 0,0 l/m 2 min 0 min 404 W/m 6,4 km/h (2 Bft) 93,62 %
18.07.2021 08:54 18,6 C 23,3 C 21,1 C 95 % 1024,5 hPa 0,0 l/m 2 min 0 min 409 W/m 9,7 km/h (2 Bft) 95,65 %
18.07.2021 08:56 18,8 C 23,9 C 21,7 C 94 % 1024,4 hPa 0,0 l/m 2 min 0 min 418 W/m 6,4 km/h (2 Bft) 96,61 %
18.07.2021 08:58 18,8 C 24,4 C 21,7 C 94 % 1024,4 hPa 0,0 l/m 2 min 0 min 423 W/m 9,7 km/h (2 Bft) 94,29 %
18.07.2021 09:00 19,0 C 25,0 C 21,7 C 93 % 1024,4 hPa 0,0 l/m 2 min 0 min 429 W/m 6,4 km/h (2 Bft) 97,87 %
18.07.2021 09:02 19,1 C 25,0 C 22,3 C 92 % 1024,4 hPa 0,0 l/m 2 min 0 min 435 W/m 6,4 km/h (2 Bft) 93,62 %
18.07.2021 09:04 19,2 C 24,4 C 22,3 C 91 % 1024,5 hPa 0,0 l/m 2 min 0 min 440 W/m 9,7 km/h (2 Bft) 95,74 %
18.07.2021 09:06 19,3 C 25,0 C 22,3 C 90 % 1024,4 hPa 0,0 l/m 2 min 0 min 449 W/m 9,7 km/h (2 Bft) 93,22 %
18.07.2021 09:08 19,5 C 25,0 C 21,7 C 89 % 1024,4 hPa 0,0 l/m 2 min 0 min 455 W/m 12,9 km/h (3 Bft) 97,87 %
18.07.2021 09:10 19,8 C 25,6 C 22,3 C 89 % 1024,4 hPa 0,0 l/m 2 min 0 min 463 W/m 6,4 km/h (2 Bft) 97,14 %
18.07.2021 09:12 20,0 C 26,1 C 22,8 C 88 % 1024,4 hPa 0,0 l/m 2 min 0 min 469 W/m 6,4 km/h (2 Bft) 95,74 %
18.07.2021 09:14 20,2 C 26,1 C 22,8 C 87 % 1024,4 hPa 0,0 l/m 2 min 0 min 472 W/m 3,2 km/h (1 Bft) 93,62 %
18.07.2021 09:16 20,4 C 26,7 C 22,8 C 86 % 1024,4 hPa 0,0 l/m 2 min 0 min 479 W/m 9,7 km/h (2 Bft) 97,83 %
18.07.2021 09:18 20,5 C 26,7 C 22,8 C 85 % 1024,4 hPa 0,0 l/m 2 min 0 min 484 W/m 3,2 km/h (1 Bft) 95,74 %
18.07.2021 09:20 20,6 C 26,7 C 22,8 C 84 % 1024,3 hPa 0,0 l/m 2 min 0 min 490 W/m 6,4 km/h (2 Bft) 95,74 %
18.07.2021 09:22 20,7 C 26,7 C 22,8 C 83 % 1024,4 hPa 0,0 l/m 2 min 0 min 496 W/m 6,4 km/h (2 Bft) 93,62 %
18.07.2021 09:24 20,8 C 26,7 C 22,8 C 82 % 1024,4 hPa 0,0 l/m 2 min 0 min 500 W/m 6,4 km/h (2 Bft) 97,87 %
18.07.2021 09:26 20,9 C 26,7 C 22,8 C 81 % 1024,4 hPa 0,0 l/m 2 min 0 min 509 W/m 6,4 km/h (2 Bft) 100,00 %
18.07.2021 09:28 21,0 C 27,2 C 23,4 C 80 % 1024,3 hPa 0,0 l/m 2 min 0 min 510 W/m 12,9 km/h (3 Bft) 100,00 %
18.07.2021 09:30 21,1 C 27,2 C 23,4 C 79 % 1024,4 hPa 0,0 l/m 2 min 0 min 517 W/m 9,7 km/h (2 Bft) 100,00 %
18.07.2021 09:32 21,3 C 26,7 C 23,4 C 79 % 1024,4 hPa 0,0 l/m 2 min 0 min 521 W/m 12,9 km/h (3 Bft) 100,00 %
18.07.2021 09:34 21,3 C 26,7 C 23,4 C 78 % 1024,4 hPa 0,0 l/m 2 min 0 min 527 W/m 9,7 km/h (2 Bft) 97,87 %
18.07.2021 09:36 21,4 C 27,2 C 23,4 C 79 % 1024,4 hPa 0,0 l/m 2 min 0 min 534 W/m 12,9 km/h (3 Bft) 100,00 %
18.07.2021 09:38 21,5 C 27,8 C 23,9 C 79 % 1024,5 hPa 0,0 l/m 2 min 0 min 539 W/m 9,7 km/h (2 Bft) 100,00 %
18.07.2021 09:40 21,5 C 27,2 C 23,9 C 78 % 1024,4 hPa 0,0 l/m 2 min 0 min 545 W/m 12,9 km/h (3 Bft) 100,00 %
18.07.2021 09:42 21,6 C 26,7 C 23,9 C 77 % 1024,4 hPa 0,0 l/m 2 min 0 min 551 W/m 12,9 km/h (3 Bft) 100,00 %
18.07.2021 09:44 21,7 C 26,7 C 23,9 C 77 % 1024,4 hPa 0,0 l/m 2 min 0 min 555 W/m 9,7 km/h (2 Bft) 100,00 %
18.07.2021 09:46 21,8 C 26,1 C 23,9 C 77 % 1024,4 hPa 0,0 l/m 2 min 0 min 558 W/m 12,9 km/h (3 Bft) 100,00 %
18.07.2021 09:48 21,8 C 26,1 C 23,9 C 77 % 1024,3 hPa 0,0 l/m 2 min 0 min 565 W/m 9,7 km/h (2 Bft) 100,00 %
18.07.2021 09:50 21,9 C 26,1 C 24,5 C 77 % 1024,3 hPa 0,0 l/m 2 min 0 min 568 W/m 9,7 km/h (2 Bft) 100,00 %
18.07.2021 09:52 22,0 C 26,7 C 24,5 C 76 % 1024,3 hPa 0,0 l/m 2 min 0 min 573 W/m 9,7 km/h (2 Bft) 100,00 %
18.07.2021 09:54 22,0 C 26,1 C 24,5 C 76 % 1024,4 hPa 0,0 l/m 2 min 0 min 577 W/m 9,7 km/h (2 Bft) 100,00 %
18.07.2021 09:56 22,1 C 26,7 C 24,5 C 75 % 1024,3 hPa 0,0 l/m 2 min 0 min 582 W/m 12,9 km/h (3 Bft) 100,00 %
18.07.2021 09:58 22,1 C 26,7 C 24,5 C 75 % 1024,4 hPa 0,0 l/m 2 min 0 min 590 W/m 12,9 km/h (3 Bft) 100,00 %
18.07.2021 10:00 22,2 C 26,7 C 24,5 C 75 % 1024,3 hPa 0,0 l/m 2 min 0 min 597 W/m 12,9 km/h (3 Bft) 100,00 %
18.07.2021 10:02 22,3 C 27,2 C 25,0 C 75 % 1024,4 hPa 0,0 l/m 2 min 0 min 600 W/m 9,7 km/h (2 Bft) 100,00 %
18.07.2021 10:04 22,4 C 26,1 C 25,0 C 75 % 1024,3 hPa 0,0 l/m 2 min 0 min 603 W/m 9,7 km/h (2 Bft) 100,00 %
18.07.2021 10:06 22,4 C 26,1 C 25,0 C 75 % 1024,3 hPa 0,0 l/m 2 min 0 min 609 W/m 16,1 km/h (3 Bft) 100,00 %
18.07.2021 10:08 22,5 C 26,1 C 24,5 C 75 % 1024,3 hPa 0,0 l/m 2 min 0 min 613 W/m 6,4 km/h (2 Bft) 100,00 %
18.07.2021 10:10 22,6 C 26,1 C 24,5 C 74 % 1024,3 hPa 0,0 l/m 2 min 0 min 619 W/m 9,7 km/h (2 Bft) 100,00 %
18.07.2021 10:12 22,6 C 27,2 C 23,9 C 74 % 1024,3 hPa 0,0 l/m 2 min 0 min 625 W/m 9,7 km/h (2 Bft) 97,87 %
18.07.2021 10:14 22,9 C 27,2 C 23,9 C 74 % 1024,3 hPa 0,0 l/m 2 min 0 min 629 W/m 9,7 km/h (2 Bft) 100,00 %
18.07.2021 10:16 23,0 C 27,2 C 24,5 C 73 % 1024,3 hPa 0,0 l/m 2 min 0 min 633 W/m 6,4 km/h (2 Bft) 100,00 %
18.07.2021 10:18 23,0 C 27,2 C 24,5 C 73 % 1024,3 hPa 0,0 l/m 2 min 0 min 634 W/m 9,7 km/h (2 Bft) 100,00 %
18.07.2021 10:20 23,1 C 27,2 C 24,5 C 72 % 1024,3 hPa 0,0 l/m 2 min 0 min 638 W/m 16,1 km/h (3 Bft) 100,00 %
18.07.2021 10:22 23,1 C 26,7 C 24,5 C 72 % 1024,3 hPa 0,0 l/m 2 min 0 min 642 W/m 12,9 km/h (3 Bft) 100,00 %
18.07.2021 10:24 22,9 C 25,6 C 25,0 C 71 % 1024,3 hPa 0,0 l/m 2 min 0 min 646 W/m 6,4 km/h (2 Bft) 100,00 %
18.07.2021 10:26 22,8 C 25,6 C 25,6 C 72 % 1024,3 hPa 0,0 l/m 2 min 0 min 652 W/m 6,4 km/h (2 Bft) 100,00 %
18.07.2021 10:28 22,8 C 25,0 C 26,1 C 72 % 1024,3 hPa 0,0 l/m 2 min 0 min 659 W/m 9,7 km/h (2 Bft) 100,00 %
18.07.2021 10:30 22,9 C 25,6 C 26,7 C 72 % 1024,2 hPa 0,0 l/m 2 min 0 min 664 W/m 9,7 km/h (2 Bft) 100,00 %
18.07.2021 10:32 22,9 C 25,0 C 26,1 C 72 % 1024,2 hPa 0,0 l/m 2 min 0 min 669 W/m 6,4 km/h (2 Bft) 97,87 %
18.07.2021 10:34 23,0 C 25,0 C 26,7 C 72 % 1024,3 hPa 0,0 l/m 2 min 0 min 676 W/m 9,7 km/h (2 Bft) 95,74 %
18.07.2021 10:36 23,1 C 25,0 C 26,7 C 72 % 1024,2 hPa 0,0 l/m 2 min 0 min 681 W/m 6,4 km/h (2 Bft) 97,87 %
18.07.2021 10:38 23,2 C 24,4 C 27,3 C 72 % 1024,2 hPa 0,0 l/m 2 min 0 min 688 W/m 16,1 km/h (3 Bft) 97,87 %
18.07.2021 10:40 23,3 C 24,4 C 27,8 C 72 % 1024,2 hPa 0,0 l/m 2 min 0 min 694 W/m 12,9 km/h (3 Bft) 97,83 %
18.07.2021 10:42 23,3 C 23,9 C 27,8 C 71 % 1024,2 hPa 0,0 l/m 2 min 0 min 696 W/m 9,7 km/h (2 Bft) 97,87 %
18.07.2021 10:44 23,2 C 23,9 C 28,4 C 71 % 1024,2 hPa 0,0 l/m 2 min 0 min 700 W/m 12,9 km/h (3 Bft) 95,74 %
18.07.2021 10:46 23,1 C 23,3 C 28,4 C 71 % 1024,2 hPa 0,0 l/m 2 min 0 min 707 W/m 12,9 km/h (3 Bft) 97,87 %
18.07.2021 10:48 23,1 C 23,3 C 28,4 C 71 % 1024,2 hPa 0,0 l/m 2 min 0 min 713 W/m 9,7 km/h (2 Bft) 97,87 %
18.07.2021 10:50 23,2 C 23,9 C 28,4 C 71 % 1024,2 hPa 0,0 l/m 2 min 0 min 716 W/m 3,2 km/h (1 Bft) 97,83 %
18.07.2021 10:52 23,3 C 24,4 C 27,3 C 72 % 1024,2 hPa 0,0 l/m 2 min 0 min 723 W/m 9,7 km/h (2 Bft) 97,87 %
18.07.2021 10:54 23,3 C 24,4 C 25,0 C 71 % 1024,1 hPa 0,0 l/m 2 min 0 min 727 W/m 9,7 km/h (2 Bft) 97,87 %
18.07.2021 10:56 23,4 C 25,0 C 25,0 C 71 % 1024,1 hPa 0,0 l/m 2 min 0 min 732 W/m 9,7 km/h (2 Bft) 97,87 %
18.07.2021 10:58 23,4 C 25,0 C 25,0 C 71 % 1024,1 hPa 0,0 l/m 2 min 0 min 736 W/m 9,7 km/h (2 Bft) 97,87 %
18.07.2021 11:00 23,5 C 25,0 C 24,5 C 71 % 1024,0 hPa 0,0 l/m 2 min 0 min 737 W/m 12,9 km/h (3 Bft) 95,74 %
18.07.2021 11:02 23,5 C 25,0 C 23,9 C 71 % 1024,1 hPa 0,0 l/m 2 min 0 min 742 W/m 6,4 km/h (2 Bft) 95,65 %
18.07.2021 11:04 23,6 C 25,6 C 23,4 C 71 % 1024,1 hPa 0,0 l/m 2 min 0 min 750 W/m 6,4 km/h (2 Bft) 97,87 %
18.07.2021 11:06 23,7 C 25,6 C 23,4 C 71 % 1024,1 hPa 0,0 l/m 2 min 0 min 756 W/m 9,7 km/h (2 Bft) 97,87 %
18.07.2021 11:08 23,8 C 25,0 C 22,8 C 71 % 1024,0 hPa 0,0 l/m 2 min 0 min 771 W/m 6,4 km/h (2 Bft) 97,87 %
18.07.2021 11:10 23,7 C 25,6 C 22,8 C 71 % 1024,0 hPa 0,0 l/m 2 min 0 min 777 W/m 6,4 km/h (2 Bft) 97,87 %
18.07.2021 11:12 23,8 C 25,6 C 22,3 C 71 % 1024,0 hPa 0,0 l/m 2 min 0 min 779 W/m 9,7 km/h (2 Bft) 95,74 %
18.07.2021 11:14 23,8 C 25,6 C 21,7 C 71 % 1024,1 hPa 0,0 l/m 2 min 0 min 771 W/m 12,9 km/h (3 Bft) 97,87 %
18.07.2021 11:16 23,8 C 25,6 C 21,7 C 70 % 1024,1 hPa 0,0 l/m 2 min 0 min 771 W/m 9,7 km/h (2 Bft) 97,83 %
18.07.2021 11:18 23,8 C 25,6 C 21,7 C 71 % 1024,1 hPa 0,0 l/m 2 min 0 min 773 W/m 12,9 km/h (3 Bft) 100,00 %
18.07.2021 11:20 23,8 C 25,6 C 21,7 C 70 % 1024,1 hPa 0,0 l/m 2 min 0 min 783 W/m 9,7 km/h (2 Bft) 95,74 %
18.07.2021 11:22 23,9 C 26,1 C 22,8 C 70 % 1024,0 hPa 0,0 l/m 2 min 0 min 783 W/m 12,9 km/h (3 Bft) 100,00 %
18.07.2021 11:24 23,9 C 26,1 C 22,8 C 70 % 1024,0 hPa 0,0 l/m 2 min 0 min 787 W/m 12,9 km/h (3 Bft) 97,87 %
18.07.2021 11:26 23,9 C 25,6 C 23,4 C 70 % 1023,9 hPa 0,0 l/m 2 min 0 min 792 W/m 6,4 km/h (2 Bft) 100,00 %
18.07.2021 11:28 23,9 C 25,6 C 23,9 C 71 % 1024,0 hPa 0,0 l/m 2 min 0 min 795 W/m 9,7 km/h (2 Bft) 100,00 %
18.07.2021 11:30 24,0 C 26,1 C 24,5 C 70 % 1024,0 hPa 0,0 l/m 2 min 0 min 794 W/m 12,9 km/h (3 Bft) 97,87 %
18.07.2021 11:32 24,0 C 26,1 C 25,0 C 69 % 1024,0 hPa 0,0 l/m 2 min 0 min 799 W/m 19,3 km/h (3 Bft) 100,00 %
18.07.2021 11:34 24,1 C 26,1 C 25,0 C 68 % 1024,0 hPa 0,0 l/m 2 min 0 min 802 W/m 16,1 km/h (3 Bft) 100,00 %
18.07.2021 11:36 24,1 C 26,7 C 25,6 C 69 % 1024,0 hPa 0,0 l/m 2 min 0 min 805 W/m 9,7 km/h (2 Bft) 100,00 %
18.07.2021 11:38 24,3 C 26,7 C 26,1 C 69 % 1024,0 hPa 0,0 l/m 2 min 0 min 813 W/m 19,3 km/h (3 Bft) 100,00 %
18.07.2021 11:40 24,3 C 26,1 C 26,7 C 69 % 1024,0 hPa 0,0 l/m 2 min 0 min 816 W/m 12,9 km/h (3 Bft) 97,87 %
18.07.2021 11:42 24,3 C 26,1 C 27,3 C 69 % 1023,9 hPa 0,0 l/m 2 min 0 min 816 W/m 6,4 km/h (2 Bft) 100,00 %
18.07.2021 11:44 24,3 C 25,6 C 27,8 C 69 % 1023,9 hPa 0,0 l/m 2 min 0 min 819 W/m 9,7 km/h (2 Bft) 100,00 %
18.07.2021 11:46 24,3 C 26,1 C 28,9 C 70 % 1024,0 hPa 0,0 l/m 2 min 0 min 820 W/m 6,4 km/h (2 Bft) 97,87 %
18.07.2021 11:48 24,4 C 26,1 C 28,9 C 70 % 1023,9 hPa 0,0 l/m 2 min 0 min 823 W/m 12,9 km/h (3 Bft) 100,00 %
18.07.2021 11:50 24,4 C 26,7 C 28,9 C 70 % 1023,9 hPa 0,0 l/m 2 min 0 min 824 W/m 12,9 km/h (3 Bft) 100,00 %
18.07.2021 11:52 24,4 C 26,7 C 28,9 C 70 % 1023,9 hPa 0,0 l/m 2 min 0 min 829 W/m 6,4 km/h (2 Bft) 100,00 %
18.07.2021 11:54 24,5 C 26,7 C 27,3 C 70 % 1023,9 hPa 0,0 l/m 2 min 0 min 833 W/m 16,1 km/h (3 Bft) 100,00 %
18.07.2021 11:56 24,6 C 27,2 C 26,7 C 70 % 1023,9 hPa 0,0 l/m 2 min 0 min 836 W/m 16,1 km/h (3 Bft) 97,87 %
18.07.2021 11:58 24,6 C 26,7 C 25,6 C 68 % 1023,9 hPa 0,0 l/m 2 min 0 min 838 W/m 9,7 km/h (2 Bft) 100,00 %
18.07.2021 12:00 24,6 C 26,7 C 25,0 C 68 % 1023,9 hPa 0,0 l/m 2 min 0 min 838 W/m 16,1 km/h (3 Bft) 100,00 %
18.07.2021 12:02 24,7 C 26,7 C 24,5 C 67 % 1023,9 hPa 0,0 l/m 2 min 0 min 846 W/m 12,9 km/h (3 Bft) 100,00 %
18.07.2021 12:04 24,7 C 26,7 C 24,5 C 69 % 1023,9 hPa 0,0 l/m 2 min 0 min 848 W/m 12,9 km/h (3 Bft) 97,87 %
18.07.2021 12:08 24,9 C 27,2 C 25,6 C 68 % 1023,9 hPa 0,0 l/m 4 min 0 min 857 W/m 19,3 km/h (3 Bft) 98,00 %
18.07.2021 12:10 25,0 C 27,8 C 24,5 C 68 % 1023,8 hPa 0,0 l/m 2 min 0 min 862 W/m 16,1 km/h (3 Bft) 95,74 %
18.07.2021 12:12 25,1 C 27,8 C 25,0 C 67 % 1023,8 hPa 0,0 l/m 2 min 0 min 858 W/m 16,1 km/h (3 Bft) 91,49 %
18.07.2021 12:14 25,1 C 27,8 C 25,0 C 67 % 1023,7 hPa 0,0 l/m 2 min 0 min 855 W/m 16,1 km/h (3 Bft) 95,74 %
18.07.2021 12:16 25,3 C 27,8 C 25,6 C 67 % 1023,8 hPa 0,0 l/m 2 min 0 min 856 W/m 19,3 km/h (3 Bft) 93,48 %
18.07.2021 12:18 25,4 C 27,8 C 26,1 C 67 % 1023,7 hPa 0,0 l/m 2 min 0 min 859 W/m 12,9 km/h (3 Bft) 93,62 %
18.07.2021 12:20 25,5 C 28,3 C 27,3 C 67 % 1023,7 hPa 0,0 l/m 2 min 0 min 860 W/m 12,9 km/h (3 Bft) 95,74 %
18.07.2021 12:22 25,5 C 27,8 C 28,9 C 67 % 1023,7 hPa 0,0 l/m 2 min 0 min 863 W/m 25,7 km/h (4 Bft) 95,74 %
18.07.2021 12:24 25,5 C 27,2 C 29,5 C 66 % 1023,7 hPa 0,0 l/m 2 min 0 min 863 W/m 16,1 km/h (3 Bft) 95,74 %
18.07.2021 12:26 25,5 C 27,2 C 30,6 C 66 % 1023,6 hPa 0,0 l/m 2 min 0 min 869 W/m 25,7 km/h (4 Bft) 91,49 %
18.07.2021 12:28 25,5 C 27,2 C 31,7 C 66 % 1023,6 hPa 0,0 l/m 2 min 0 min 872 W/m 16,1 km/h (3 Bft) 95,65 %
18.07.2021 12:30 25,5 C 27,2 C 32,8 C 66 % 1023,6 hPa 0,0 l/m 2 min 0 min 875 W/m 9,7 km/h (2 Bft) 95,74 %
18.07.2021 12:32 25,6 C 27,2 C 33,9 C 66 % 1023,6 hPa 0,0 l/m 2 min 0 min 879 W/m 16,1 km/h (3 Bft) 95,74 %
18.07.2021 12:34 25,6 C 26,7 C 33,9 C 65 % 1023,5 hPa 0,0 l/m 2 min 0 min 880 W/m 9,7 km/h (2 Bft) 95,74 %
18.07.2021 12:36 25,6 C 26,7 C 33,9 C 66 % 1023,6 hPa 0,0 l/m 2 min 0 min 874 W/m 19,3 km/h (3 Bft) 93,62 %
18.07.2021 12:38 25,6 C 26,7 C 33,4 C 65 % 1023,5 hPa 0,0 l/m 2 min 0 min 876 W/m 16,1 km/h (3 Bft) 95,65 %
18.07.2021 12:40 25,6 C 26,7 C 33,4 C 65 % 1023,6 hPa 0,0 l/m 2 min 0 min 877 W/m 16,1 km/h (3 Bft) 95,74 %
18.07.2021 12:42 25,6 C 26,7 C 33,4 C 66 % 1023,6 hPa 0,0 l/m 2 min 0 min 886 W/m 12,9 km/h (3 Bft) 95,74 %
18.07.2021 12:44 25,6 C 26,7 C 33,4 C 66 % 1023,5 hPa 0,0 l/m 2 min 0 min 888 W/m 9,7 km/h (2 Bft) 95,74 %
18.07.2021 12:46 25,6 C 26,1 C 32,8 C 66 % 1023,4 hPa 0,0 l/m 2 min 0 min 881 W/m 12,9 km/h (3 Bft) 95,74 %
18.07.2021 12:48 25,6 C 26,1 C 33,4 C 66 % 1023,6 hPa 0,0 l/m 2 min 0 min 879 W/m 16,1 km/h (3 Bft) 97,87 %
18.07.2021 12:50 25,6 C 26,7 C 33,4 C 66 % 1023,5 hPa 0,0 l/m 2 min 0 min 879 W/m 16,1 km/h (3 Bft) 95,65 %
18.07.2021 12:52 25,7 C 26,7 C 33,4 C 66 % 1023,5 hPa 0,0 l/m 2 min 0 min 882 W/m 22,5 km/h (4 Bft) 95,74 %
18.07.2021 12:54 25,7 C 26,1 C 32,8 C 65 % 1023,5 hPa 0,0 l/m 2 min 0 min 885 W/m 16,1 km/h (3 Bft) 95,74 %
18.07.2021 12:56 25,8 C 27,2 C 32,3 C 66 % 1023,5 hPa 0,0 l/m 2 min 0 min 887 W/m 16,1 km/h (3 Bft) 93,62 %
18.07.2021 12:58 25,9 C 27,8 C 33,9 C 66 % 1023,5 hPa 0,0 l/m 2 min 0 min 890 W/m 12,9 km/h (3 Bft) 95,74 %
18.07.2021 13:00 26,0 C 27,8 C 33,9 C 65 % 1023,5 hPa 0,0 l/m 2 min 0 min 888 W/m 6,4 km/h (2 Bft) 97,87 %
18.07.2021 13:02 26,0 C 27,2 C 33,9 C 64 % 1023,4 hPa 0,0 l/m 2 min 0 min 889 W/m 6,4 km/h (2 Bft) 93,48 %
18.07.2021 13:04 26,0 C 27,2 C 32,3 C 64 % 1023,4 hPa 0,0 l/m 2 min 0 min 892 W/m 6,4 km/h (2 Bft) 97,87 %
18.07.2021 13:06 26,1 C 27,2 C 31,1 C 65 % 1023,5 hPa 0,0 l/m 2 min 0 min 893 W/m 16,1 km/h (3 Bft) 97,87 %
18.07.2021 13:08 26,2 C 27,8 C 30,6 C 64 % 1023,4 hPa 0,0 l/m 2 min 0 min 895 W/m 16,1 km/h (3 Bft) 100,00 %
18.07.2021 13:10 26,3 C 27,2 C 31,1 C 64 % 1023,4 hPa 0,0 l/m 2 min 0 min 895 W/m 16,1 km/h (3 Bft) 97,87 %
18.07.2021 13:12 26,4 C 27,8 C 30,6 C 64 % 1023,4 hPa 0,0 l/m 2 min 0 min 896 W/m 12,9 km/h (3 Bft) 97,87 %
18.07.2021 13:14 26,4 C 26,7 C 29,5 C 63 % 1023,4 hPa 0,0 l/m 2 min 0 min 898 W/m 6,4 km/h (2 Bft) 97,83 %
18.07.2021 13:16 26,3 C 26,7 C 29,5 C 63 % 1023,3 hPa 0,0 l/m 2 min 0 min 896 W/m 12,9 km/h (3 Bft) 93,62 %
18.07.2021 13:18 26,4 C 27,2 C 30,6 C 63 % 1023,4 hPa 0,0 l/m 2 min 0 min 898 W/m 19,3 km/h (3 Bft) 95,74 %
18.07.2021 13:20 26,4 C 27,8 C 30,6 C 64 % 1023,4 hPa 0,0 l/m 2 min 0 min 899 W/m 16,1 km/h (3 Bft) 95,74 %
18.07.2021 13:22 26,5 C 27,2 C 30,6 C 64 % 1023,3 hPa 0,0 l/m 2 min 0 min 901 W/m 12,9 km/h (3 Bft) 97,87 %
18.07.2021 13:24 26,5 C 27,8 C 30,6 C 64 % 1023,3 hPa 0,0 l/m 2 min 0 min 901 W/m 9,7 km/h (2 Bft) 97,87 %
18.07.2021 13:26 26,6 C 27,8 C 31,1 C 63 % 1023,3 hPa 0,0 l/m 2 min 0 min 902 W/m 19,3 km/h (3 Bft) 95,65 %
18.07.2021 13:28 26,6 C 27,8 C 31,7 C 63 % 1023,2 hPa 0,0 l/m 2 min 0 min 904 W/m 12,9 km/h (3 Bft) 97,87 %
18.07.2021 13:30 26,6 C 27,8 C 32,3 C 63 % 1023,2 hPa 0,0 l/m 2 min 0 min 904 W/m 19,3 km/h (3 Bft) 97,87 %
18.07.2021 13:32 26,6 C 27,8 C 32,3 C 62 % 1023,3 hPa 0,0 l/m 2 min 0 min 902 W/m 12,9 km/h (3 Bft) 97,87 %
18.07.2021 13:34 26,6 C 27,8 C 31,7 C 63 % 1023,2 hPa 0,0 l/m 2 min 0 min 901 W/m 9,7 km/h (2 Bft) 95,74 %
18.07.2021 13:36 26,7 C 27,8 C 31,1 C 64 % 1023,2 hPa 0,0 l/m 2 min 0 min 901 W/m 9,7 km/h (2 Bft) 97,87 %
18.07.2021 13:38 26,7 C 28,3 C 31,7 C 64 % 1023,2 hPa 0,0 l/m 2 min 0 min 900 W/m 9,7 km/h (2 Bft) 97,83 %
18.07.2021 13:40 26,8 C 27,8 C 32,8 C 62 % 1023,2 hPa 0,0 l/m 2 min 0 min 899 W/m 19,3 km/h (3 Bft) 97,87 %
18.07.2021 13:42 26,7 C 27,8 C 32,8 C 62 % 1023,2 hPa 0,0 l/m 2 min 0 min 900 W/m 16,1 km/h (3 Bft) 95,74 %
18.07.2021 13:44 26,8 C 28,3 C 33,9 C 62 % 1023,2 hPa 0,0 l/m 2 min 0 min 900 W/m 12,9 km/h (3 Bft) 97,87 %
18.07.2021 13:46 26,8 C 28,3 C 33,4 C 62 % 1023,2 hPa 0,0 l/m 2 min 0 min 902 W/m 19,3 km/h (3 Bft) 95,74 %
18.07.2021 13:48 26,9 C 29,4 C 33,9 C 64 % 1023,2 hPa 0,0 l/m 2 min 0 min 900 W/m 16,1 km/h (3 Bft) 97,87 %
18.07.2021 13:50 26,9 C 29,4 C 33,4 C 63 % 1023,1 hPa 0,0 l/m 2 min 0 min 899 W/m 19,3 km/h (3 Bft) 97,83 %
18.07.2021 13:52 26,9 C 28,9 C 33,9 C 62 % 1023,1 hPa 0,0 l/m 2 min 0 min 895 W/m 19,3 km/h (3 Bft) 97,87 %
18.07.2021 13:54 26,9 C 28,9 C 33,9 C 62 % 1023,1 hPa 0,0 l/m 2 min 0 min 894 W/m 22,5 km/h (4 Bft) 100,00 %
18.07.2021 13:56 26,9 C 28,3 C 32,3 C 62 % 1023,1 hPa 0,0 l/m 2 min 0 min 895 W/m 19,3 km/h (3 Bft) 100,00 %
18.07.2021 13:58 26,9 C 28,3 C 30,0 C 62 % 1023,0 hPa 0,0 l/m 2 min 0 min 894 W/m 19,3 km/h (3 Bft) 100,00 %
18.07.2021 14:00 26,9 C 28,3 C 28,9 C 62 % 1023,0 hPa 0,0 l/m 2 min 0 min 892 W/m 12,9 km/h (3 Bft) 100,00 %
18.07.2021 14:02 27,0 C 28,9 C 27,8 C 63 % 1023,0 hPa 0,0 l/m 2 min 0 min 895 W/m 22,5 km/h (4 Bft) 93,48 %
18.07.2021 14:04 27,0 C 28,3 C 27,3 C 62 % 1023,0 hPa 0,0 l/m 2 min 0 min 898 W/m 19,3 km/h (3 Bft) 100,00 %
18.07.2021 14:06 27,0 C 28,9 C 26,7 C 62 % 1023,0 hPa 0,0 l/m 2 min 0 min 900 W/m 22,5 km/h (4 Bft) 100,00 %
18.07.2021 14:08 27,0 C 28,9 C 26,1 C 63 % 1022,9 hPa 0,0 l/m 2 min 0 min 902 W/m 19,3 km/h (3 Bft) 100,00 %
18.07.2021 14:10 27,0 C 28,9 C 25,6 C 63 % 1023,0 hPa 0,0 l/m 2 min 0 min 903 W/m 19,3 km/h (3 Bft) 100,00 %
18.07.2021 14:12 27,0 C 28,9 C 25,6 C 62 % 1023,0 hPa 0,0 l/m 2 min 0 min 929 W/m 16,1 km/h (3 Bft) 95,92 %
18.07.2021 14:14 27,1 C 29,4 C 25,6 C 63 % 1022,9 hPa 0,0 l/m 2 min 0 min 967 W/m 12,9 km/h (3 Bft) 100,00 %
18.07.2021 14:16 27,0 C 28,9 C 25,0 C 62 % 1022,9 hPa 0,0 l/m 2 min 0 min 977 W/m 22,5 km/h (4 Bft) 100,00 %
18.07.2021 14:18 27,1 C 28,9 C 25,0 C 63 % 1022,9 hPa 0,0 l/m 2 min 0 min 930 W/m 32,2 km/h (5 Bft) 100,00 %
18.07.2021 14:20 27,1 C 28,9 C 25,0 C 63 % 1022,8 hPa 0,0 l/m 2 min 0 min 917 W/m 19,3 km/h (3 Bft) 100,00 %
18.07.2021 14:22 27,2 C 29,4 C 25,0 C 63 % 1022,8 hPa 0,0 l/m 2 min 0 min 904 W/m 22,5 km/h (4 Bft) 100,00 %
18.07.2021 14:24 27,2 C 29,4 C 24,5 C 63 % 1022,8 hPa 0,0 l/m 2 min 0 min 900 W/m 19,3 km/h (3 Bft) 100,00 %
18.07.2021 14:26 27,2 C 30,0 C 24,5 C 63 % 1022,8 hPa 0,0 l/m 2 min 0 min 917 W/m 9,7 km/h (2 Bft) 100,00 %
18.07.2021 14:28 27,3 C 30,0 C 24,5 C 63 % 1022,7 hPa 0,0 l/m 2 min 0 min 937 W/m 19,3 km/h (3 Bft) 100,00 %
18.07.2021 14:30 27,4 C 30,0 C 24,5 C 63 % 1022,7 hPa 0,0 l/m 2 min 0 min 914 W/m 22,5 km/h (4 Bft) 100,00 %
18.07.2021 14:32 27,4 C 30,0 C 24,5 C 63 % 1022,7 hPa 0,0 l/m 2 min 0 min 908 W/m 22,5 km/h (4 Bft) 97,83 %
18.07.2021 14:34 27,4 C 29,4 C 24,5 C 63 % 1022,7 hPa 0,0 l/m 2 min 0 min 910 W/m 22,5 km/h (4 Bft) 100,00 %
18.07.2021 14:36 27,4 C 29,4 C 24,5 C 62 % 1022,7 hPa 0,0 l/m 2 min 0 min 909 W/m 16,1 km/h (3 Bft) 100,00 %
18.07.2021 14:38 27,4 C 28,9 C 24,5 C 62 % 1022,7 hPa 0,0 l/m 2 min 0 min 929 W/m 22,5 km/h (4 Bft) 100,00 %
18.07.2021 14:40 27,4 C 28,9 C 24,5 C 62 % 1022,7 hPa 0,0 l/m 2 min 0 min 930 W/m 22,5 km/h (4 Bft) 97,87 %
18.07.2021 14:42 27,4 C 28,9 C 23,9 C 62 % 1022,7 hPa 0,0 l/m 2 min 0 min 910 W/m 22,5 km/h (4 Bft) 95,74 %
18.07.2021 14:44 27,5 C 29,4 C 24,5 C 62 % 1022,6 hPa 0,0 l/m 2 min 0 min 902 W/m 12,9 km/h (3 Bft) 100,00 %
18.07.2021 14:46 27,5 C 29,4 C 24,5 C 63 % 1022,6 hPa 0,0 l/m 2 min 0 min 909 W/m 16,1 km/h (3 Bft) 100,00 %
18.07.2021 14:48 27,5 C 30,0 C 24,5 C 64 % 1022,6 hPa 0,0 l/m 2 min 0 min 906 W/m 9,7 km/h (2 Bft) 100,00 %
18.07.2021 14:50 27,6 C 30,0 C 24,5 C 64 % 1022,6 hPa 0,0 l/m 2 min 0 min 901 W/m 12,9 km/h (3 Bft) 97,87 %
18.07.2021 14:52 27,7 C 29,4 C 24,5 C 63 % 1022,6 hPa 0,0 l/m 2 min 0 min 905 W/m 16,1 km/h (3 Bft) 95,74 %
18.07.2021 14:54 27,6 C 29,4 C 24,5 C 61 % 1022,6 hPa 0,0 l/m 2 min 0 min 901 W/m 12,9 km/h (3 Bft) 100,00 %
18.07.2021 14:56 27,7 C 30,0 C 24,5 C 64 % 1022,6 hPa 0,0 l/m 2 min 0 min 912 W/m 19,3 km/h (3 Bft) 97,83 %
18.07.2021 14:58 27,8 C 30,0 C 25,0 C 61 % 1022,7 hPa 0,0 l/m 2 min 0 min 918 W/m 25,7 km/h (4 Bft) 100,00 %
18.07.2021 15:00 27,9 C 30,6 C 25,0 C 60 % 1022,6 hPa 0,0 l/m 2 min 0 min 918 W/m 22,5 km/h (4 Bft) 97,87 %
18.07.2021 15:02 27,9 C 29,4 C 24,5 C 60 % 1022,6 hPa 0,0 l/m 2 min 0 min 921 W/m 22,5 km/h (4 Bft) 100,00 %
18.07.2021 15:04 27,9 C 30,0 C 24,5 C 61 % 1022,6 hPa 0,0 l/m 2 min 0 min 934 W/m 19,3 km/h (3 Bft) 97,87 %
18.07.2021 15:06 28,0 C 29,4 C 24,5 C 61 % 1022,6 hPa 0,0 l/m 2 min 0 min 944 W/m 9,7 km/h (2 Bft) 95,74 %
18.07.2021 15:08 28,0 C 28,9 C 24,5 C 62 % 1022,6 hPa 0,0 l/m 2 min 0 min 944 W/m 16,1 km/h (3 Bft) 93,48 %
18.07.2021 15:10 28,0 C 28,9 C 24,5 C 62 % 1022,5 hPa 0,0 l/m 2 min 0 min 944 W/m 9,7 km/h (2 Bft) 97,87 %
18.07.2021 15:12 27,9 C 28,9 C 24,5 C 61 % 1022,5 hPa 0,0 l/m 2 min 0 min 944 W/m 16,1 km/h (3 Bft) 97,87 %
18.07.2021 15:14 27,9 C 30,0 C 24,5 C 62 % 1022,5 hPa 0,0 l/m 2 min 0 min 950 W/m 12,9 km/h (3 Bft) 97,87 %
18.07.2021 15:16 28,0 C 30,0 C 25,0 C 63 % 1022,5 hPa 0,0 l/m 2 min 0 min 995 W/m 9,7 km/h (2 Bft) 97,87 %
18.07.2021 15:18 28,0 C 30,6 C 25,0 C 63 % 1022,4 hPa 0,0 l/m 2 min 0 min 995 W/m 6,4 km/h (2 Bft) 95,74 %
18.07.2021 15:20 28,2 C 31,1 C 25,6 C 64 % 1022,4 hPa 0,0 l/m 2 min 0 min 943 W/m 12,9 km/h (3 Bft) 97,83 %
18.07.2021 15:22 28,4 C 31,1 C 25,6 C 62 % 1022,4 hPa 0,0 l/m 2 min 0 min 897 W/m 16,1 km/h (3 Bft) 95,74 %
18.07.2021 15:24 28,4 C 30,0 C 25,0 C 60 % 1022,5 hPa 0,0 l/m 2 min 0 min 811 W/m 22,5 km/h (4 Bft) 97,87 %
18.07.2021 15:26 28,3 C 30,0 C 25,0 C 60 % 1022,4 hPa 0,0 l/m 2 min 0 min 816 W/m 12,9 km/h (3 Bft) 97,87 %
18.07.2021 15:28 28,3 C 30,0 C 25,0 C 60 % 1022,4 hPa 0,0 l/m 2 min 0 min 863 W/m 19,3 km/h (3 Bft) 100,00 %
18.07.2021 15:30 28,3 C 30,0 C 25,0 C 60 % 1022,4 hPa 0,0 l/m 2 min 0 min 862 W/m 22,5 km/h (4 Bft) 97,87 %
18.07.2021 15:32 28,3 C 30,0 C 24,5 C 60 % 1022,4 hPa 0,0 l/m 2 min 0 min 854 W/m 29,0 km/h (5 Bft) 95,65 %
18.07.2021 15:34 28,2 C 30,0 C 24,5 C 59 % 1022,4 hPa 0,0 l/m 2 min 0 min 876 W/m 22,5 km/h (4 Bft) 97,87 %
18.07.2021 15:36 28,2 C 30,0 C 25,0 C 61 % 1022,4 hPa 0,0 l/m 2 min 0 min 875 W/m 16,1 km/h (3 Bft) 93,62 %
18.07.2021 15:38 28,2 C 30,0 C 24,5 C 60 % 1022,3 hPa 0,0 l/m 2 min 0 min 867 W/m 12,9 km/h (3 Bft) 93,62 %
18.07.2021 15:40 28,2 C 30,0 C 24,5 C 62 % 1022,3 hPa 0,0 l/m 2 min 0 min 843 W/m 12,9 km/h (3 Bft) 93,62 %
18.07.2021 15:42 28,2 C 30,0 C 25,0 C 61 % 1022,4 hPa 0,0 l/m 2 min 0 min 852 W/m 22,5 km/h (4 Bft) 93,62 %
18.07.2021 15:44 28,1 C 30,0 C 25,0 C 61 % 1022,4 hPa 0,0 l/m 2 min 0 min 844 W/m 29,0 km/h (5 Bft) 95,65 %
18.07.2021 15:46 28,2 C 30,0 C 25,0 C 61 % 1022,4 hPa 0,0 l/m 2 min 0 min 830 W/m 12,9 km/h (3 Bft) 93,62 %
18.07.2021 15:48 28,3 C 30,6 C 25,0 C 61 % 1022,3 hPa 0,0 l/m 2 min 0 min 837 W/m 22,5 km/h (4 Bft) 93,62 %
18.07.2021 15:50 28,3 C 30,6 C 25,0 C 61 % 1022,3 hPa 0,0 l/m 2 min 0 min 858 W/m 29,0 km/h (5 Bft) 93,62 %
18.07.2021 15:52 28,4 C 30,6 C 25,6 C 60 % 1022,3 hPa 0,0 l/m 2 min 0 min 861 W/m 25,7 km/h (4 Bft) 93,62 %
18.07.2021 15:54 28,3 C 30,0 C 25,0 C 60 % 1022,4 hPa 0,0 l/m 2 min 0 min 842 W/m 29,0 km/h (5 Bft) 95,74 %
18.07.2021 15:56 28,3 C 30,6 C 25,0 C 60 % 1022,3 hPa 0,0 l/m 2 min 0 min 867 W/m 19,3 km/h (3 Bft) 95,65 %
18.07.2021 15:58 28,4 C 30,6 C 25,0 C 61 % 1022,4 hPa 0,0 l/m 2 min 0 min 888 W/m 16,1 km/h (3 Bft) 95,74 %
18.07.2021 16:00 28,4 C 30,0 C 25,0 C 61 % 1022,3 hPa 0,0 l/m 2 min 0 min 888 W/m 19,3 km/h (3 Bft) 97,87 %
18.07.2021 16:02 28,4 C 29,4 C 25,0 C 61 % 1022,2 hPa 0,0 l/m 2 min 0 min 457 W/m 16,1 km/h (3 Bft) 93,62 %
18.07.2021 16:04 28,3 C 28,3 C 25,0 C 61 % 1022,2 hPa 0,0 l/m 0 min 0 min 225 W/m 9,7 km/h (2 Bft) 95,74 %
18.07.2021 16:06 28,2 C 28,9 C 25,0 C 61 % 1022,3 hPa 0,0 l/m 0 min 0 min 218 W/m 16,1 km/h (3 Bft) 93,62 %
18.07.2021 16:08 28,1 C 30,0 C 25,0 C 62 % 1022,2 hPa 0,0 l/m 2 min 0 min 391 W/m 16,1 km/h (3 Bft) 95,65 %
18.07.2021 16:10 28,1 C 30,0 C 25,0 C 61 % 1022,2 hPa 0,0 l/m 2 min 0 min 830 W/m 16,1 km/h (3 Bft) 95,74 %
18.07.2021 16:12 28,1 C 29,4 C 25,0 C 60 % 1022,1 hPa 0,0 l/m 0 min 0 min 269 W/m 12,9 km/h (3 Bft) 95,74 %
18.07.2021 16:14 28,1 C 29,4 C 25,0 C 60 % 1022,1 hPa 0,0 l/m 0 min 0 min 287 W/m 12,9 km/h (3 Bft) 95,74 %
18.07.2021 16:16 28,1 C 28,9 C 25,0 C 60 % 1022,1 hPa 0,0 l/m 0 min 0 min 249 W/m 22,5 km/h (4 Bft) 95,74 %
18.07.2021 16:18 28,0 C 28,9 C 25,0 C 60 % 1022,1 hPa 0,0 l/m 0 min 0 min 258 W/m 25,7 km/h (4 Bft) 95,74 %
18.07.2021 16:20 27,9 C 28,9 C 24,5 C 60 % 1022,1 hPa 0,0 l/m 0 min 0 min 261 W/m 22,5 km/h (4 Bft) 95,65 %
18.07.2021 16:22 27,9 C 28,9 C 25,0 C 61 % 1022,0 hPa 0,0 l/m 0 min 0 min 275 W/m 25,7 km/h (4 Bft) 95,74 %
18.07.2021 16:24 27,9 C 29,4 C 25,0 C 61 % 1022,1 hPa 0,0 l/m 0 min 0 min 294 W/m 25,7 km/h (4 Bft) 93,62 %
18.07.2021 16:26 27,8 C 30,6 C 25,0 C 60 % 1022,1 hPa 0,0 l/m 2 min 0 min 651 W/m 12,9 km/h (3 Bft) 95,74 %
18.07.2021 16:28 27,9 C 31,1 C 25,0 C 61 % 1022,0 hPa 0,0 l/m 2 min 0 min 781 W/m 19,3 km/h (3 Bft) 97,87 %
18.07.2021 16:30 28,0 C 31,7 C 25,0 C 61 % 1022,0 hPa 0,0 l/m 2 min 0 min 787 W/m 16,1 km/h (3 Bft) 97,87 %
18.07.2021 16:32 28,0 C 31,1 C 25,6 C 61 % 1022,0 hPa 0,0 l/m 2 min 0 min 769 W/m 19,3 km/h (3 Bft) 97,83 %
18.07.2021 16:34 28,1 C 31,1 C 25,0 C 61 % 1021,9 hPa 0,0 l/m 2 min 0 min 772 W/m 16,1 km/h (3 Bft) 95,74 %
18.07.2021 16:36 28,1 C 31,1 C 25,0 C 60 % 1022,0 hPa 0,0 l/m 2 min 0 min 788 W/m 32,2 km/h (5 Bft) 100,00 %
18.07.2021 16:38 28,1 C 30,6 C 25,0 C 59 % 1022,0 hPa 0,0 l/m 2 min 0 min 769 W/m 19,3 km/h (3 Bft) 100,00 %
18.07.2021 16:40 28,1 C 30,0 C 25,0 C 59 % 1022,0 hPa 0,0 l/m 2 min 0 min 770 W/m 16,1 km/h (3 Bft) 100,00 %
18.07.2021 16:42 28,1 C 30,6 C 25,0 C 60 % 1021,9 hPa 0,0 l/m 2 min 0 min 448 W/m 12,9 km/h (3 Bft) 100,00 %
18.07.2021 16:44 28,1 C 31,1 C 25,0 C 61 % 1022,0 hPa 0,0 l/m 2 min 0 min 634 W/m 12,9 km/h (3 Bft) 100,00 %
18.07.2021 16:46 28,2 C 32,2 C 25,0 C 61 % 1021,9 hPa 0,0 l/m 2 min 0 min 738 W/m 12,9 km/h (3 Bft) 100,00 %
18.07.2021 16:48 28,3 C 31,7 C 25,6 C 61 % 1021,9 hPa 0,0 l/m 2 min 0 min 679 W/m 22,5 km/h (4 Bft) 100,00 %
18.07.2021 16:50 28,3 C 31,7 C 25,6 C 60 % 1021,9 hPa 0,0 l/m 2 min 0 min 481 W/m 22,5 km/h (4 Bft) 95,74 %
18.07.2021 16:52 28,3 C 31,7 C 25,6 C 59 % 1021,9 hPa 0,0 l/m 2 min 0 min 730 W/m 29,0 km/h (5 Bft) 100,00 %
18.07.2021 16:54 28,4 C 30,6 C 25,6 C 59 % 1021,9 hPa 0,0 l/m 2 min 0 min 614 W/m 19,3 km/h (3 Bft) 100,00 %
18.07.2021 16:56 28,3 C 29,4 C 25,0 C 59 % 1021,9 hPa 0,0 l/m 0 min 0 min 318 W/m 22,5 km/h (4 Bft) 100,00 %
18.07.2021 16:58 28,3 C 28,9 C 25,0 C 59 % 1021,9 hPa 0,0 l/m 0 min 0 min 222 W/m 12,9 km/h (3 Bft) 100,00 %
18.07.2021 17:00 28,2 C 30,0 C 25,0 C 59 % 1021,8 hPa 0,0 l/m 2 min 0 min 322 W/m 12,9 km/h (3 Bft) 97,87 %
18.07.2021 17:02 28,2 C 30,6 C 25,0 C 60 % 1021,8 hPa 0,0 l/m 2 min 0 min 677 W/m 16,1 km/h (3 Bft) 100,00 %
18.07.2021 17:04 28,2 C 30,6 C 25,0 C 60 % 1021,8 hPa 0,0 l/m 2 min 0 min 628 W/m 19,3 km/h (3 Bft) 100,00 %
18.07.2021 17:06 28,3 C 31,1 C 25,6 C 61 % 1021,9 hPa 0,0 l/m 2 min 0 min 642 W/m 12,9 km/h (3 Bft) 100,00 %
18.07.2021 17:08 28,3 C 30,0 C 25,6 C 61 % 1021,8 hPa 0,0 l/m 0 min 0 min 280 W/m 19,3 km/h (3 Bft) 97,87 %
18.07.2021 17:10 28,3 C 30,6 C 25,0 C 60 % 1021,8 hPa 0,0 l/m 0 min 0 min 227 W/m 16,1 km/h (3 Bft) 100,00 %
18.07.2021 17:12 28,3 C 30,6 C 25,6 C 62 % 1021,8 hPa 0,0 l/m 2 min 0 min 663 W/m 9,7 km/h (2 Bft) 97,87 %
18.07.2021 17:14 28,3 C 30,0 C 25,0 C 61 % 1021,8 hPa 0,0 l/m 2 min 0 min 663 W/m 19,3 km/h (3 Bft) 100,00 %
18.07.2021 17:16 28,3 C 28,9 C 25,0 C 60 % 1021,8 hPa 0,0 l/m 0 min 0 min 182 W/m 16,1 km/h (3 Bft) 100,00 %
18.07.2021 17:18 28,2 C 30,6 C 25,0 C 61 % 1021,7 hPa 0,0 l/m 2 min 0 min 491 W/m 12,9 km/h (3 Bft) 100,00 %
18.07.2021 17:20 28,2 C 31,7 C 25,0 C 60 % 1021,7 hPa 0,0 l/m 2 min 0 min 646 W/m 12,9 km/h (3 Bft) 100,00 %
18.07.2021 17:22 28,3 C 32,2 C 25,6 C 61 % 1021,7 hPa 0,0 l/m 2 min 0 min 636 W/m 16,1 km/h (3 Bft) 100,00 %
18.07.2021 17:24 28,3 C 32,2 C 25,6 C 60 % 1021,7 hPa 0,0 l/m 2 min 0 min 620 W/m 32,2 km/h (5 Bft) 100,00 %
18.07.2021 17:26 28,4 C 32,2 C 25,6 C 59 % 1021,8 hPa 0,0 l/m 2 min 0 min 610 W/m 22,5 km/h (4 Bft) 95,74 %
18.07.2021 17:28 28,4 C 32,2 C 25,6 C 58 % 1021,7 hPa 0,0 l/m 2 min 0 min 600 W/m 22,5 km/h (4 Bft) 100,00 %
18.07.2021 17:30 28,4 C 32,8 C 25,6 C 59 % 1021,7 hPa 0,0 l/m 2 min 0 min 595 W/m 16,1 km/h (3 Bft) 100,00 %
18.07.2021 17:32 28,5 C 32,8 C 25,6 C 59 % 1021,7 hPa 0,0 l/m 2 min 0 min 586 W/m 22,5 km/h (4 Bft) 100,00 %
18.07.2021 17:34 28,5 C 32,8 C 25,6 C 58 % 1021,7 hPa 0,0 l/m 2 min 0 min 570 W/m 25,7 km/h (4 Bft) 100,00 %
18.07.2021 17:36 28,6 C 33,3 C 26,1 C 60 % 1021,6 hPa 0,0 l/m 2 min 0 min 566 W/m 9,7 km/h (2 Bft) 97,87 %
18.07.2021 17:38 28,8 C 33,3 C 26,1 C 59 % 1021,7 hPa 0,0 l/m 2 min 0 min 562 W/m 12,9 km/h (3 Bft) 100,00 %
18.07.2021 17:40 28,8 C 32,8 C 26,1 C 59 % 1021,7 hPa 0,0 l/m 2 min 0 min 551 W/m 19,3 km/h (3 Bft) 100,00 %
18.07.2021 17:42 28,9 C 33,3 C 26,1 C 59 % 1021,6 hPa 0,0 l/m 2 min 0 min 545 W/m 16,1 km/h (3 Bft) 100,00 %
18.07.2021 17:44 28,9 C 32,8 C 26,1 C 58 % 1021,6 hPa 0,0 l/m 2 min 0 min 541 W/m 19,3 km/h (3 Bft) 100,00 %
18.07.2021 17:46 28,8 C 32,2 C 26,1 C 58 % 1021,5 hPa 0,0 l/m 2 min 0 min 539 W/m 22,5 km/h (4 Bft) 97,87 %
18.07.2021 17:48 28,8 C 31,7 C 26,1 C 58 % 1021,6 hPa 0,0 l/m 2 min 0 min 514 W/m 19,3 km/h (3 Bft) 100,00 %
18.07.2021 17:50 28,7 C 30,0 C 25,6 C 58 % 1021,5 hPa 0,0 l/m 0 min 0 min 182 W/m 22,5 km/h (4 Bft) 100,00 %
18.07.2021 17:52 28,5 C 29,4 C 25,0 C 58 % 1021,5 hPa 0,0 l/m 0 min 0 min 142 W/m 12,9 km/h (3 Bft) 100,00 %
18.07.2021 17:54 28,4 C 28,3 C 24,5 C 59 % 1021,5 hPa 0,0 l/m 0 min 0 min 122 W/m 19,3 km/h (3 Bft) 97,83 %
18.07.2021 17:56 28,3 C 27,8 C 24,5 C 59 % 1021,5 hPa 0,0 l/m 0 min 0 min 131 W/m 12,9 km/h (3 Bft) 100,00 %
18.07.2021 17:58 28,1 C 28,9 C 24,5 C 60 % 1021,4 hPa 0,0 l/m 0 min 0 min 199 W/m 9,7 km/h (2 Bft) 97,87 %
18.07.2021 18:00 28,0 C 30,0 C 24,5 C 61 % 1021,4 hPa 0,0 l/m 2 min 0 min 523 W/m 16,1 km/h (3 Bft) 100,00 %
18.07.2021 18:02 28,0 C 31,1 C 25,0 C 61 % 1021,4 hPa 0,0 l/m 2 min 0 min 530 W/m 12,9 km/h (3 Bft) 98,11 %
18.07.2021 18:04 28,0 C 31,1 C 25,0 C 60 % 1021,4 hPa 0,0 l/m 2 min 0 min 526 W/m 16,1 km/h (3 Bft) 97,87 %
18.07.2021 18:08 28,1 C 32,2 C 25,6 C 61 % 1021,4 hPa 0,0 l/m 4 min 0 min 509 W/m 22,5 km/h (4 Bft) 96,94 %
18.07.2021 18:10 28,3 C 32,8 C 25,6 C 61 % 1021,4 hPa 0,0 l/m 2 min 0 min 513 W/m 16,1 km/h (3 Bft) 95,74 %
18.07.2021 18:12 28,4 C 32,8 C 26,1 C 60 % 1021,4 hPa 0,0 l/m 2 min 0 min 509 W/m 25,7 km/h (4 Bft) 95,74 %
18.07.2021 18:14 28,4 C 32,8 C 26,1 C 60 % 1021,3 hPa 0,0 l/m 2 min 0 min 490 W/m 16,1 km/h (3 Bft) 95,74 %
18.07.2021 18:16 28,5 C 32,8 C 26,1 C 59 % 1021,3 hPa 0,0 l/m 2 min 0 min 481 W/m 19,3 km/h (3 Bft) 95,74 %
18.07.2021 18:18 28,5 C 33,3 C 26,1 C 60 % 1021,3 hPa 0,0 l/m 2 min 0 min 482 W/m 12,9 km/h (3 Bft) 95,74 %
18.07.2021 18:20 28,6 C 33,3 C 26,1 C 60 % 1021,3 hPa 0,0 l/m 2 min 0 min 477 W/m 19,3 km/h (3 Bft) 95,65 %
18.07.2021 18:22 28,6 C 33,3 C 26,1 C 59 % 1021,3 hPa 0,0 l/m 2 min 0 min 475 W/m 22,5 km/h (4 Bft) 95,74 %
18.07.2021 18:24 28,7 C 33,3 C 26,1 C 59 % 1021,3 hPa 0,0 l/m 2 min 0 min 452 W/m 12,9 km/h (3 Bft) 93,62 %
18.07.2021 18:26 28,8 C 33,3 C 26,1 C 59 % 1021,2 hPa 0,0 l/m 2 min 0 min 446 W/m 12,9 km/h (3 Bft) 95,74 %
18.07.2021 18:28 28,9 C 33,3 C 26,1 C 58 % 1021,3 hPa 0,0 l/m 2 min 0 min 450 W/m 22,5 km/h (4 Bft) 93,62 %
18.07.2021 18:30 28,9 C 32,8 C 26,1 C 58 % 1021,3 hPa 0,0 l/m 2 min 0 min 458 W/m 12,9 km/h (3 Bft) 97,87 %
18.07.2021 18:32 28,9 C 33,3 C 26,1 C 58 % 1021,3 hPa 0,0 l/m 2 min 0 min 459 W/m 19,3 km/h (3 Bft) 95,65 %
18.07.2021 18:34 28,9 C 32,8 C 26,1 C 59 % 1021,3 hPa 0,0 l/m 2 min 0 min 454 W/m 32,2 km/h (5 Bft) 93,62 %
18.07.2021 18:36 28,8 C 31,7 C 25,6 C 59 % 1021,2 hPa 0,0 l/m 2 min 0 min 432 W/m 12,9 km/h (3 Bft) 95,74 %
18.07.2021 18:38 28,6 C 32,2 C 26,1 C 59 % 1021,2 hPa 0,0 l/m 2 min 0 min 422 W/m 22,5 km/h (4 Bft) 95,74 %
18.07.2021 18:40 28,6 C 32,2 C 25,6 C 59 % 1021,2 hPa 0,0 l/m 2 min 0 min 402 W/m 19,3 km/h (3 Bft) 95,74 %
18.07.2021 18:42 28,6 C 32,2 C 25,6 C 60 % 1021,2 hPa 0,0 l/m 2 min 0 min 347 W/m 9,7 km/h (2 Bft) 97,87 %
18.07.2021 18:44 28,6 C 31,1 C 25,6 C 59 % 1021,2 hPa 0,0 l/m 2 min 0 min 361 W/m 9,7 km/h (2 Bft) 93,48 %
18.07.2021 18:46 28,5 C 31,1 C 25,6 C 59 % 1021,2 hPa 0,0 l/m 2 min 0 min 384 W/m 22,5 km/h (4 Bft) 95,74 %
18.07.2021 18:48 28,5 C 31,1 C 25,0 C 59 % 1021,2 hPa 0,0 l/m 2 min 0 min 381 W/m 19,3 km/h (3 Bft) 95,74 %
18.07.2021 18:50 28,4 C 31,7 C 25,6 C 59 % 1021,2 hPa 0,0 l/m 2 min 0 min 363 W/m 16,1 km/h (3 Bft) 95,74 %
18.07.2021 18:52 28,4 C 32,2 C 25,6 C 60 % 1021,2 hPa 0,0 l/m 2 min 0 min 386 W/m 6,4 km/h (2 Bft) 93,62 %
18.07.2021 18:54 28,4 C 31,1 C 25,6 C 60 % 1021,2 hPa 0,0 l/m 2 min 0 min 383 W/m 22,5 km/h (4 Bft) 97,87 %
18.07.2021 18:56 28,3 C 29,4 C 25,0 C 60 % 1021,2 hPa 0,0 l/m 0 min 0 min 138 W/m 12,9 km/h (3 Bft) 95,65 %
18.07.2021 18:58 28,2 C 29,4 C 25,0 C 60 % 1021,2 hPa 0,0 l/m 0 min 0 min 126 W/m 12,9 km/h (3 Bft) 95,74 %
18.07.2021 19:00 28,1 C 30,6 C 25,0 C 59 % 1021,2 hPa 0,0 l/m 2 min 0 min 337 W/m 32,2 km/h (5 Bft) 97,87 %
18.07.2021 19:02 28,0 C 30,0 C 25,0 C 59 % 1021,2 hPa 0,0 l/m 2 min 0 min 361 W/m 29,0 km/h (5 Bft) 100,00 %
18.07.2021 19:04 28,0 C 30,6 C 24,5 C 59 % 1021,2 hPa 0,0 l/m 2 min 0 min 344 W/m 25,7 km/h (4 Bft) 100,00 %
18.07.2021 19:06 27,9 C 31,1 C 24,5 C 59 % 1021,2 hPa 0,0 l/m 2 min 0 min 334 W/m 16,1 km/h (3 Bft) 98,28 %
18.07.2021 19:08 27,9 C 31,1 C 24,5 C 60 % 1021,2 hPa 0,0 l/m 2 min 0 min 331 W/m 16,1 km/h (3 Bft) 100,00 %
18.07.2021 19:10 27,9 C 31,1 C 24,5 C 60 % 1021,3 hPa 0,0 l/m 2 min 0 min 319 W/m 12,9 km/h (3 Bft) 96,61 %
18.07.2021 19:12 27,9 C 30,6 C 24,5 C 59 % 1021,2 hPa 0,0 l/m 2 min 0 min 313 W/m 19,3 km/h (3 Bft) 100,00 %
18.07.2021 19:14 27,8 C 30,6 C 24,5 C 60 % 1021,3 hPa 0,0 l/m 2 min 0 min 308 W/m 16,1 km/h (3 Bft) 93,62 %
18.07.2021 19:16 27,8 C 29,4 C 23,9 C 60 % 1021,3 hPa 0,0 l/m 2 min 0 min 308 W/m 16,1 km/h (3 Bft) 97,87 %
18.07.2021 19:18 27,7 C 28,9 C 23,9 C 60 % 1021,3 hPa 0,0 l/m 2 min 0 min 304 W/m 25,7 km/h (4 Bft) 97,87 %
18.07.2021 19:20 27,6 C 28,9 C 23,9 C 60 % 1021,3 hPa 0,0 l/m 2 min 0 min 299 W/m 19,3 km/h (3 Bft) 97,83 %
18.07.2021 19:22 27,6 C 27,8 C 23,9 C 60 % 1021,3 hPa 0,0 l/m 2 min 0 min 237 W/m 22,5 km/h (4 Bft) 95,74 %
18.07.2021 19:24 27,5 C 27,2 C 23,9 C 60 % 1021,3 hPa 0,0 l/m 0 min 0 min 146 W/m 22,5 km/h (4 Bft) 97,87 %
18.07.2021 19:26 27,5 C 27,2 C 23,9 C 60 % 1021,3 hPa 0,0 l/m 2 min 0 min 194 W/m 16,1 km/h (3 Bft) 97,87 %
18.07.2021 19:28 27,4 C 26,7 C 23,4 C 61 % 1021,3 hPa 0,0 l/m 2 min 0 min 239 W/m 16,1 km/h (3 Bft) 97,87 %
18.07.2021 19:30 27,3 C 26,1 C 23,4 C 61 % 1021,3 hPa 0,0 l/m 2 min 0 min 228 W/m 16,1 km/h (3 Bft) 97,87 %
18.07.2021 19:32 27,1 C 26,1 C 23,4 C 60 % 1021,3 hPa 0,0 l/m 0 min 0 min 100 W/m 22,5 km/h (4 Bft) 95,65 %
18.07.2021 19:34 27,0 C 26,1 C 23,4 C 61 % 1021,3 hPa 0,0 l/m 2 min 0 min 196 W/m 19,3 km/h (3 Bft) 97,87 %
18.07.2021 19:36 26,9 C 26,1 C 22,8 C 61 % 1021,4 hPa 0,0 l/m 2 min 0 min 228 W/m 22,5 km/h (4 Bft) 95,74 %
18.07.2021 19:38 26,8 C 25,6 C 22,8 C 60 % 1021,4 hPa 0,0 l/m 2 min 0 min 221 W/m 25,7 km/h (4 Bft) 97,87 %
18.07.2021 19:40 26,8 C 25,6 C 22,8 C 61 % 1021,4 hPa 0,0 l/m 2 min 0 min 212 W/m 16,1 km/h (3 Bft) 97,87 %
18.07.2021 19:42 26,7 C 25,6 C 22,8 C 61 % 1021,4 hPa 0,0 l/m 2 min 0 min 205 W/m 22,5 km/h (4 Bft) 97,83 %
18.07.2021 19:44 26,6 C 25,6 C 22,8 C 61 % 1021,4 hPa 0,0 l/m 2 min 0 min 198 W/m 16,1 km/h (3 Bft) 97,87 %
18.07.2021 19:46 26,6 C 25,6 C 22,8 C 61 % 1021,4 hPa 0,0 l/m 2 min 0 min 192 W/m 25,7 km/h (4 Bft) 95,74 %
18.07.2021 19:48 26,5 C 25,6 C 22,8 C 61 % 1021,4 hPa 0,0 l/m 2 min 0 min 183 W/m 19,3 km/h (3 Bft) 97,87 %
18.07.2021 19:50 26,5 C 25,6 C 22,8 C 61 % 1021,4 hPa 0,0 l/m 2 min 0 min 130 W/m 25,7 km/h (4 Bft) 97,87 %
18.07.2021 19:52 26,4 C 25,6 C 22,8 C 61 % 1021,4 hPa 0,0 l/m 0 min 0 min 69 W/m 19,3 km/h (3 Bft) 97,87 %
18.07.2021 19:54 26,4 C 25,6 C 22,8 C 61 % 1021,4 hPa 0,0 l/m 0 min 0 min 58 W/m 32,2 km/h (5 Bft) 97,87 %
18.07.2021 19:56 26,3 C 25,0 C 22,8 C 61 % 1021,4 hPa 0,0 l/m 0 min 0 min 56 W/m 25,7 km/h (4 Bft) 97,83 %
18.07.2021 19:58 26,2 C 25,0 C 22,8 C 62 % 1021,4 hPa 0,0 l/m 0 min 0 min 54 W/m 16,1 km/h (3 Bft) 97,87 %
18.07.2021 20:00 26,1 C 25,0 C 22,8 C 62 % 1021,4 hPa 0,0 l/m 0 min 0 min 54 W/m 16,1 km/h (3 Bft) 95,74 %
18.07.2021 20:02 26,1 C 25,0 C 22,8 C 63 % 1021,4 hPa 0,0 l/m 0 min 0 min 53 W/m 19,3 km/h (3 Bft) 96,00 %
18.07.2021 20:04 26,0 C 25,0 C 22,8 C 62 % 1021,4 hPa 0,0 l/m 0 min 0 min 51 W/m 16,1 km/h (3 Bft) 97,87 %
18.07.2021 20:06 26,0 C 25,0 C 22,8 C 62 % 1021,4 hPa 0,0 l/m 0 min 0 min 50 W/m 19,3 km/h (3 Bft) 97,87 %
18.07.2021 20:08 26,0 C 25,0 C 22,3 C 63 % 1021,4 hPa 0,0 l/m 0 min 0 min 48 W/m 16,1 km/h (3 Bft) 100,00 %
18.07.2021 20:10 25,9 C 25,0 C 22,3 C 63 % 1021,4 hPa 0,0 l/m 0 min 0 min 47 W/m 25,7 km/h (4 Bft) 100,00 %
18.07.2021 20:12 25,8 C 25,0 C 22,3 C 63 % 1021,4 hPa 0,0 l/m 0 min 0 min 46 W/m 19,3 km/h (3 Bft) 100,00 %
18.07.2021 20:14 25,8 C 25,0 C 22,3 C 63 % 1021,3 hPa 0,0 l/m 0 min 0 min 45 W/m 25,7 km/h (4 Bft) 97,87 %
18.07.2021 20:16 25,7 C 24,4 C 22,3 C 63 % 1021,3 hPa 0,0 l/m 0 min 0 min 44 W/m 22,5 km/h (4 Bft) 97,87 %
18.07.2021 20:18 25,6 C 24,4 C 22,3 C 63 % 1021,3 hPa 0,0 l/m 0 min 0 min 43 W/m 16,1 km/h (3 Bft) 100,00 %
18.07.2021 20:20 25,5 C 24,4 C 22,3 C 64 % 1021,3 hPa 0,0 l/m 0 min 0 min 42 W/m 12,9 km/h (3 Bft) 100,00 %
18.07.2021 20:22 25,5 C 24,4 C 22,3 C 63 % 1021,3 hPa 0,0 l/m 0 min 0 min 41 W/m 19,3 km/h (3 Bft) 100,00 %
18.07.2021 20:24 25,4 C 24,4 C 21,7 C 64 % 1021,2 hPa 0,0 l/m 0 min 0 min 40 W/m 19,3 km/h (3 Bft) 97,87 %
18.07.2021 20:26 25,4 C 24,4 C 21,7 C 63 % 1021,3 hPa 0,0 l/m 0 min 0 min 39 W/m 16,1 km/h (3 Bft) 100,00 %
18.07.2021 20:28 25,3 C 24,4 C 21,7 C 63 % 1021,3 hPa 0,0 l/m 0 min 0 min 38 W/m 25,7 km/h (4 Bft) 100,00 %
18.07.2021 20:30 25,3 C 23,9 C 21,7 C 63 % 1021,3 hPa 0,0 l/m 0 min 0 min 37 W/m 19,3 km/h (3 Bft) 100,00 %
18.07.2021 20:32 25,1 C 23,9 C 21,7 C 64 % 1021,3 hPa 0,0 l/m 0 min 0 min 36 W/m 22,5 km/h (4 Bft) 100,00 %
18.07.2021 20:34 25,1 C 23,9 C 21,7 C 64 % 1021,4 hPa 0,0 l/m 0 min 0 min 35 W/m 29,0 km/h (5 Bft) 100,00 %
18.07.2021 20:36 25,1 C 23,9 C 21,7 C 64 % 1021,3 hPa 0,0 l/m 0 min 0 min 34 W/m 19,3 km/h (3 Bft) 100,00 %
18.07.2021 20:38 25,0 C 23,9 C 21,7 C 64 % 1021,3 hPa 0,0 l/m 0 min 0 min 33 W/m 9,7 km/h (2 Bft) 100,00 %
18.07.2021 20:40 25,0 C 23,9 C 21,7 C 64 % 1021,3 hPa 0,0 l/m 0 min 0 min 32 W/m 16,1 km/h (3 Bft) 100,00 %
18.07.2021 20:42 24,9 C 23,9 C 21,1 C 65 % 1021,4 hPa 0,0 l/m 0 min 0 min 32 W/m 9,7 km/h (2 Bft) 100,00 %
18.07.2021 20:44 24,9 C 23,9 C 21,1 C 65 % 1021,4 hPa 0,0 l/m 0 min 0 min 30 W/m 16,1 km/h (3 Bft) 97,83 %
18.07.2021 20:46 24,8 C 23,9 C 21,1 C 65 % 1021,3 hPa 0,0 l/m 0 min 0 min 30 W/m 16,1 km/h (3 Bft) 97,87 %
18.07.2021 20:48 24,8 C 23,3 C 21,1 C 65 % 1021,4 hPa 0,0 l/m 0 min 0 min 29 W/m 9,7 km/h (2 Bft) 95,74 %
18.07.2021 20:50 24,7 C 23,3 C 21,1 C 66 % 1021,4 hPa 0,0 l/m 0 min 0 min 28 W/m 9,7 km/h (2 Bft) 97,87 %
18.07.2021 20:52 24,6 C 23,3 C 21,1 C 66 % 1021,5 hPa 0,0 l/m 0 min 0 min 27 W/m 12,9 km/h (3 Bft) 97,87 %
18.07.2021 20:54 24,6 C 23,3 C 21,1 C 66 % 1021,4 hPa 0,0 l/m 0 min 0 min 26 W/m 6,4 km/h (2 Bft) 97,87 %
18.07.2021 20:56 24,6 C 23,3 C 21,1 C 66 % 1021,4 hPa 0,0 l/m 0 min 0 min 26 W/m 12,9 km/h (3 Bft) 97,83 %
18.07.2021 20:58 24,5 C 23,3 C 21,1 C 67 % 1021,4 hPa 0,0 l/m 0 min 0 min 25 W/m 9,7 km/h (2 Bft) 97,87 %
18.07.2021 21:00 24,5 C 23,3 C 20,6 C 67 % 1021,4 hPa 0,0 l/m 0 min 0 min 25 W/m 12,9 km/h (3 Bft) 97,87 %
18.07.2021 21:02 24,4 C 23,3 C 20,6 C 67 % 1021,4 hPa 0,0 l/m 0 min 0 min 23 W/m 12,9 km/h (3 Bft) 97,87 %
18.07.2021 21:04 24,4 C 23,3 C 20,6 C 68 % 1021,4 hPa 0,0 l/m 0 min 0 min 23 W/m 9,7 km/h (2 Bft) 95,74 %
18.07.2021 21:06 24,3 C 23,3 C 20,6 C 68 % 1021,4 hPa 0,0 l/m 0 min 0 min 22 W/m 12,9 km/h (3 Bft) 95,74 %
18.07.2021 21:08 24,2 C 22,8 C 20,6 C 68 % 1021,4 hPa 0,0 l/m 0 min 0 min 21 W/m 19,3 km/h (3 Bft) 97,83 %
18.07.2021 21:10 24,1 C 22,8 C 20,6 C 68 % 1021,4 hPa 0,0 l/m 0 min 0 min 20 W/m 16,1 km/h (3 Bft) 93,62 %
18.07.2021 21:12 24,1 C 22,8 C 20,6 C 69 % 1021,4 hPa 0,0 l/m 0 min 0 min 19 W/m 6,4 km/h (2 Bft) 97,87 %
18.07.2021 21:14 24,0 C 22,8 C 20,6 C 69 % 1021,4 hPa 0,0 l/m 0 min 0 min 18 W/m 16,1 km/h (3 Bft) 97,87 %
18.07.2021 21:16 23,9 C 22,8 C 20,6 C 69 % 1021,4 hPa 0,0 l/m 0 min 0 min 18 W/m 12,9 km/h (3 Bft) 97,87 %
18.07.2021 21:18 23,9 C 22,8 C 20,6 C 69 % 1021,4 hPa 0,0 l/m 0 min 0 min 16 W/m 12,9 km/h (3 Bft) 95,74 %
18.07.2021 21:20 23,9 C 22,8 C 20,6 C 69 % 1021,4 hPa 0,0 l/m 0 min 0 min 15 W/m 12,9 km/h (3 Bft) 95,65 %
18.07.2021 21:22 23,8 C 22,8 C 20,0 C 70 % 1021,5 hPa 0,0 l/m 0 min 0 min 14 W/m 9,7 km/h (2 Bft) 97,87 %
18.07.2021 21:24 23,7 C 22,8 C 20,0 C 70 % 1021,5 hPa 0,0 l/m 0 min 0 min 13 W/m 12,9 km/h (3 Bft) 93,62 %
18.07.2021 21:26 23,7 C 22,8 C 20,0 C 70 % 1021,5 hPa 0,0 l/m 0 min 0 min 12 W/m 12,9 km/h (3 Bft) 95,74 %
18.07.2021 21:28 23,6 C 22,2 C 20,0 C 70 % 1021,6 hPa 0,0 l/m 0 min 0 min 11 W/m 9,7 km/h (2 Bft) 97,87 %
18.07.2021 21:30 23,6 C 22,2 C 20,0 C 70 % 1021,5 hPa 0,0 l/m 0 min 0 min 11 W/m 9,7 km/h (2 Bft) 95,65 %
18.07.2021 21:32 23,5 C 22,2 C 20,0 C 71 % 1021,6 hPa 0,0 l/m 0 min 0 min 9 W/m 6,4 km/h (2 Bft) 97,87 %
18.07.2021 21:34 23,5 C 22,2 C 20,0 C 71 % 1021,5 hPa 0,0 l/m 0 min 0 min 8 W/m 16,1 km/h (3 Bft) 97,87 %
18.07.2021 21:36 23,4 C 22,2 C 20,0 C 71 % 1021,6 hPa 0,0 l/m 0 min 0 min 7 W/m 12,9 km/h (3 Bft) 97,87 %
18.07.2021 21:38 23,4 C 22,2 C 20,0 C 71 % 1021,5 hPa 0,0 l/m 0 min 0 min 5 W/m 9,7 km/h (2 Bft) 97,87 %
18.07.2021 21:40 23,3 C 22,2 C 20,0 C 72 % 1021,5 hPa 0,0 l/m 0 min 0 min 5 W/m 12,9 km/h (3 Bft) 93,62 %
18.07.2021 21:42 23,3 C 22,2 C 20,0 C 72 % 1021,6 hPa 0,0 l/m 0 min 0 min 1 W/m 16,1 km/h (3 Bft) 95,74 %
18.07.2021 21:44 23,1 C 22,2 C 19,5 C 72 % 1021,6 hPa 0,0 l/m 0 min 0 min 0 W/m 12,9 km/h (3 Bft) 97,83 %
18.07.2021 21:46 23,1 C 21,7 C 19,5 C 72 % 1021,6 hPa 0,0 l/m 0 min 0 min 0 W/m 16,1 km/h (3 Bft) 95,74 %
18.07.2021 21:48 23,0 C 21,7 C 19,5 C 72 % 1021,6 hPa 0,0 l/m 0 min 0 min 0 W/m 19,3 km/h (3 Bft) 97,87 %
18.07.2021 21:50 23,0 C 21,7 C 19,5 C 73 % 1021,7 hPa 0,0 l/m 0 min 0 min 0 W/m 12,9 km/h (3 Bft) 97,87 %
18.07.2021 21:52 22,9 C 21,7 C 19,5 C 73 % 1021,6 hPa 0,0 l/m 0 min 0 min 0 W/m 12,9 km/h (3 Bft) 93,62 %
18.07.2021 21:54 22,9 C 21,7 C 19,5 C 72 % 1021,7 hPa 0,0 l/m 0 min 0 min 0 W/m 22,5 km/h (4 Bft) 97,83 %
18.07.2021 21:56 22,8 C 21,7 C 19,5 C 73 % 1021,8 hPa 0,0 l/m 0 min 0 min 0 W/m 12,9 km/h (3 Bft) 97,87 %
18.07.2021 21:58 22,8 C 21,7 C 19,5 C 73 % 1021,8 hPa 0,0 l/m 0 min 0 min 0 W/m 9,7 km/h (2 Bft) 97,87 %
18.07.2021 22:00 22,8 C 21,1 C 19,5 C 73 % 1021,8 hPa 0,0 l/m 0 min 0 min 0 W/m 19,3 km/h (3 Bft) 97,87 %
18.07.2021 22:02 22,6 C 21,1 C 19,5 C 73 % 1021,8 hPa 0,0 l/m 0 min 0 min 0 W/m 22,5 km/h (4 Bft) 95,74 %
18.07.2021 22:04 22,6 C 21,1 C 19,5 C 73 % 1021,9 hPa 0,0 l/m 0 min 0 min 0 W/m 22,5 km/h (4 Bft) 97,87 %
18.07.2021 22:06 22,5 C 21,1 C 19,5 C 73 % 1021,9 hPa 0,0 l/m 0 min 0 min 0 W/m 9,7 km/h (2 Bft) 97,87 %
18.07.2021 22:08 22,5 C 21,1 C 19,5 C 73 % 1022,0 hPa 0,0 l/m 0 min 0 min 0 W/m 12,9 km/h (3 Bft) 97,83 %
18.07.2021 22:10 22,4 C 21,1 C 18,9 C 74 % 1022,0 hPa 0,0 l/m 0 min 0 min 0 W/m 9,7 km/h (2 Bft) 97,87 %
18.07.2021 22:12 22,4 C 21,1 C 18,9 C 74 % 1022,0 hPa 0,0 l/m 0 min 0 min 0 W/m 12,9 km/h (3 Bft) 97,87 %
18.07.2021 22:14 22,3 C 21,1 C 18,9 C 74 % 1022,0 hPa 0,0 l/m 0 min 0 min 0 W/m 12,9 km/h (3 Bft) 97,87 %
18.07.2021 22:16 22,3 C 21,1 C 18,9 C 74 % 1022,0 hPa 0,0 l/m 0 min 0 min 0 W/m 9,7 km/h (2 Bft) 100,00 %
18.07.2021 22:18 22,1 C 21,1 C 18,9 C 74 % 1022,1 hPa 0,0 l/m 0 min 0 min 0 W/m 12,9 km/h (3 Bft) 100,00 %
18.07.2021 22:20 22,1 C 20,6 C 18,9 C 74 % 1022,1 hPa 0,0 l/m 0 min 0 min 0 W/m 19,3 km/h (3 Bft) 100,00 %
18.07.2021 22:22 22,0 C 20,6 C 18,9 C 74 % 1022,1 hPa 0,0 l/m 0 min 0 min 0 W/m 12,9 km/h (3 Bft) 100,00 %
18.07.2021 22:24 21,9 C 20,6 C 18,9 C 74 % 1022,1 hPa 0,0 l/m 0 min 0 min 0 W/m 9,7 km/h (2 Bft) 100,00 %
18.07.2021 22:26 21,9 C 20,6 C 18,4 C 74 % 1022,1 hPa 0,0 l/m 0 min 0 min 0 W/m 16,1 km/h (3 Bft) 100,00 %
18.07.2021 22:28 21,8 C 20,6 C 18,4 C 74 % 1022,2 hPa 0,0 l/m 0 min 0 min 0 W/m 9,7 km/h (2 Bft) 100,00 %
18.07.2021 22:30 21,8 C 20,6 C 18,4 C 74 % 1022,2 hPa 0,0 l/m 0 min 0 min 0 W/m 19,3 km/h (3 Bft) 100,00 %
18.07.2021 22:32 21,6 C 20,6 C 18,4 C 73 % 1022,1 hPa 0,0 l/m 0 min 0 min 0 W/m 22,5 km/h (4 Bft) 97,92 %
18.07.2021 22:34 21,6 C 20,6 C 18,4 C 73 % 1022,1 hPa 0,0 l/m 0 min 0 min 0 W/m 12,9 km/h (3 Bft) 100,00 %
18.07.2021 22:36 21,5 C 20,6 C 18,4 C 73 % 1022,1 hPa 0,0 l/m 0 min 0 min 0 W/m 9,7 km/h (2 Bft) 100,00 %
18.07.2021 22:38 21,5 C 20,6 C 18,4 C 72 % 1022,1 hPa 0,0 l/m 0 min 0 min 0 W/m 16,1 km/h (3 Bft) 100,00 %
18.07.2021 22:40 21,4 C 20,6 C 18,4 C 72 % 1022,1 hPa 0,0 l/m 0 min 0 min 0 W/m 6,4 km/h (2 Bft) 97,83 %
18.07.2021 22:42 21,4 C 20,0 C 18,4 C 72 % 1022,1 hPa 0,0 l/m 0 min 0 min 0 W/m 9,7 km/h (2 Bft) 97,87 %
18.07.2021 22:44 21,3 C 20,0 C 18,4 C 72 % 1022,1 hPa 0,0 l/m 0 min 0 min 0 W/m 6,4 km/h (2 Bft) 97,87 %
18.07.2021 22:46 21,3 C 20,0 C 17,8 C 72 % 1022,2 hPa 0,0 l/m 0 min 0 min 0 W/m 16,1 km/h (3 Bft) 97,87 %
18.07.2021 22:48 21,2 C 20,0 C 17,8 C 73 % 1022,2 hPa 0,0 l/m 0 min 0 min 0 W/m 6,4 km/h (2 Bft) 97,87 %
18.07.2021 22:50 21,1 C 20,0 C 17,8 C 73 % 1022,2 hPa 0,0 l/m 0 min 0 min 0 W/m 16,1 km/h (3 Bft) 97,87 %
18.07.2021 22:52 21,1 C 20,0 C 17,8 C 72 % 1022,1 hPa 0,0 l/m 0 min 0 min 0 W/m 16,1 km/h (3 Bft) 97,83 %
18.07.2021 22:54 21,0 C 20,0 C 17,8 C 72 % 1022,1 hPa 0,0 l/m 0 min 0 min 0 W/m 19,3 km/h (3 Bft) 95,74 %
18.07.2021 22:56 21,0 C 20,0 C 17,8 C 72 % 1022,1 hPa 0,0 l/m 0 min 0 min 0 W/m 9,7 km/h (2 Bft) 97,87 %
18.07.2021 22:58 21,0 C 20,0 C 17,8 C 72 % 1022,1 hPa 0,0 l/m 0 min 0 min 0 W/m 12,9 km/h (3 Bft) 97,87 %
18.07.2021 23:00 20,9 C 20,0 C 17,8 C 72 % 1022,1 hPa 0,0 l/m 0 min 0 min 0 W/m 12,9 km/h (3 Bft) 97,87 %
18.07.2021 23:02 20,9 C 19,4 C 17,8 C 72 % 1022,1 hPa 0,0 l/m 0 min 0 min 0 W/m 6,4 km/h (2 Bft) 95,74 %
18.07.2021 23:04 20,8 C 19,4 C 17,8 C 72 % 1022,2 hPa 0,0 l/m 0 min 0 min 0 W/m 6,4 km/h (2 Bft) 97,83 %
18.07.2021 23:06 20,8 C 19,4 C 17,8 C 73 % 1022,1 hPa 0,0 l/m 0 min 0 min 0 W/m 12,9 km/h (3 Bft) 95,74 %
18.07.2021 23:08 20,8 C 19,4 C 17,3 C 72 % 1022,1 hPa 0,0 l/m 0 min 0 min 0 W/m 6,4 km/h (2 Bft) 93,62 %
18.07.2021 23:10 20,7 C 19,4 C 17,3 C 73 % 1022,1 hPa 0,0 l/m 0 min 0 min 0 W/m 3,2 km/h (1 Bft) 97,87 %
18.07.2021 23:12 20,6 C 19,4 C 17,3 C 73 % 1022,1 hPa 0,0 l/m 0 min 0 min 0 W/m 6,4 km/h (2 Bft) 97,87 %
18.07.2021 23:14 20,6 C 19,4 C 17,3 C 73 % 1022,1 hPa 0,0 l/m 0 min 0 min 0 W/m 3,2 km/h (1 Bft) 97,83 %
18.07.2021 23:16 20,5 C 19,4 C 17,3 C 74 % 1022,1 hPa 0,0 l/m 0 min 0 min 0 W/m 6,4 km/h (2 Bft) 97,87 %
18.07.2021 23:18 20,5 C 19,4 C 17,3 C 74 % 1022,2 hPa 0,0 l/m 0 min 0 min 0 W/m 6,4 km/h (2 Bft) 97,87 %
18.07.2021 23:20 20,5 C 18,9 C 17,3 C 74 % 1022,2 hPa 0,0 l/m 0 min 0 min 0 W/m 3,2 km/h (1 Bft) 97,87 %
18.07.2021 23:22 20,5 C 18,9 C 17,3 C 74 % 1022,2 hPa 0,0 l/m 0 min 0 min 0 W/m 9,7 km/h (2 Bft) 97,87 %
18.07.2021 23:24 20,4 C 18,9 C 17,3 C 74 % 1022,1 hPa 0,0 l/m 0 min 0 min 0 W/m 6,4 km/h (2 Bft) 97,87 %
18.07.2021 23:26 20,4 C 18,9 C 17,3 C 74 % 1022,1 hPa 0,0 l/m 0 min 0 min 0 W/m 6,4 km/h (2 Bft) 97,83 %
18.07.2021 23:28 20,3 C 18,9 C 17,3 C 74 % 1022,1 hPa 0,0 l/m 0 min 0 min 0 W/m 9,7 km/h (2 Bft) 93,62 %
18.07.2021 23:30 20,3 C 18,9 C 17,3 C 75 % 1022,3 hPa 0,0 l/m 0 min 0 min 0 W/m 6,4 km/h (2 Bft) 95,74 %
18.07.2021 23:32 20,2 C 18,9 C 17,3 C 75 % 1022,2 hPa 0,0 l/m 0 min 0 min 0 W/m 6,4 km/h (2 Bft) 95,74 %
18.07.2021 23:34 20,1 C 18,9 C 16,7 C 75 % 1022,3 hPa 0,0 l/m 0 min 0 min 0 W/m 9,7 km/h (2 Bft) 95,74 %
18.07.2021 23:36 20,1 C 18,9 C 16,7 C 75 % 1022,2 hPa 0,0 l/m 0 min 0 min 0 W/m 12,9 km/h (3 Bft) 95,74 %
18.07.2021 23:38 20,1 C 18,9 C 17,3 C 75 % 1022,2 hPa 0,0 l/m 0 min 0 min 0 W/m 12,9 km/h (3 Bft) 95,65 %
18.07.2021 23:40 20,0 C 18,9 C 16,7 C 75 % 1022,2 hPa 0,0 l/m 0 min 0 min 0 W/m 9,7 km/h (2 Bft) 93,62 %
18.07.2021 23:42 20,0 C 18,9 C 16,7 C 76 % 1022,2 hPa 0,0 l/m 0 min 0 min 0 W/m 9,7 km/h (2 Bft) 93,62 %
18.07.2021 23:44 19,9 C 18,9 C 16,7 C 76 % 1022,2 hPa 0,0 l/m 0 min 0 min 0 W/m 16,1 km/h (3 Bft) 95,74 %
18.07.2021 23:46 19,9 C 18,9 C 16,7 C 76 % 1022,2 hPa 0,0 l/m 0 min 0 min 0 W/m 9,7 km/h (2 Bft) 95,74 %
18.07.2021 23:48 19,9 C 18,9 C 16,7 C 77 % 1022,2 hPa 0,0 l/m 0 min 0 min 0 W/m 12,9 km/h (3 Bft) 95,74 %
18.07.2021 23:50 19,9 C 18,9 C 16,7 C 77 % 1022,2 hPa 0,0 l/m 0 min 0 min 0 W/m 6,4 km/h (2 Bft) 95,65 %
18.07.2021 23:52 19,8 C 18,9 C 16,7 C 77 % 1022,2 hPa 0,0 l/m 0 min 0 min 0 W/m 6,4 km/h (2 Bft) 95,74 %
18.07.2021 23:54 19,8 C 18,9 C 16,7 C 77 % 1022,2 hPa 0,0 l/m 0 min 0 min 0 W/m 6,4 km/h (2 Bft) 95,74 %
18.07.2021 23:56 19,8 C 18,3 C 16,7 C 77 % 1022,2 hPa 0,0 l/m 0 min 0 min 0 W/m 6,4 km/h (2 Bft) 93,62 %
18.07.2021 23:58 19,7 C 18,3 C 16,7 C 77 % 1022,2 hPa 0,0 l/m 0 min 0 min 0 W/m 9,7 km/h (2 Bft) 95,74 %
_ Min-Zeit 06:16 05:10 04:08 17:28 18:26 - - - - 02:04 04:22
Minimum _ 15,2 C 14,4 C 14,5 C 58 % 1021,2 hPa - - - - 0,0 km/h (0 Bft) 61,70 %
_ Max-Zeit 17:42 17:36 12:32 07:32 00:00 00:00 12:08 00:00 15:16 14:18 00:04
Maximum _ 28,9 C 33,3 C 33,9 C 97 % 1024,6 hPa 0,0 l/m 4 min 0 min 995 W/m 32,2 km/h
N-NW (5 Bft)
100,00 %
Durchschnitt _ 22,1 C 22,7 C 21,0 C 76 % 1023,2 hPa #0,0 l/m #11:04 h #0 min. 478 W/m 10,9 km/h (2 Bft) 97,51 %
© 2021 W. Hausmann